<- Previous Day | Today | Next Day ->

All Data for 03 December 2020

 

Time A - D Temp A - D Dew Point A - D Humidity A - D Pressure A - D Wind A - D Wind Dir Gust A - D Rain Rate A - D Rain Total
00:00 6.5 3.5 81 1009.7 6.0 SW 6.9 0.0 0.0
00:01 6.5 3.5 81 1009.8 6.0 WSW 6.9 0.0 0.0
00:02 6.5 3.5 81 1009.5 7.6 SW 7.6 0.0 0.0
00:04 6.5 3.5 81 1009.5 8.3 W 9.2 0.0 0.0
00:05 6.5 3.5 81 1009.4 5.4 SW 9.2 0.0 0.0
00:06 6.5 3.5 81 1009.7 6.9 S 9.2 0.0 0.0
00:07 6.5 3.5 81 1009.3 6.0 SW 9.2 0.0 0.0
00:08 6.5 3.5 81 1009.5 6.0 W 9.2 0.0 0.0
00:09 6.5 3.5 81 1009.5 5.4 SW 9.2 0.0 0.0
00:10 6.6 3.6 81 1009.5 6.0 SW 9.2 0.0 0.0
00:11 6.6 3.6 81 1009.4 4.5 SW 9.2 0.0 0.0
00:12 6.6 3.6 81 1009.4 6.9 SW 9.2 0.0 0.0
00:13 6.6 3.6 81 1009.5 6.0 W 9.2 0.0 0.0
00:14 6.6 3.6 81 1009.3 4.5 SW 8.3 0.0 0.0
00:15 6.6 3.6 81 1009.3 7.6 SW 7.6 0.0 0.0
00:16 6.6 3.6 81 1009.3 6.9 SW 7.6 0.0 0.0
00:17 6.6 3.6 81 1009.3 6.0 W 7.6 0.0 0.0
00:19 6.6 3.7 82 1009.1 6.9 SW 7.6 0.0 0.0
00:20 6.6 3.7 82 1009.1 6.0 SW 7.6 0.0 0.0
00:21 6.6 3.7 82 1008.9 6.0 SW 7.6 0.0 0.0
00:22 6.6 3.7 82 1008.8 6.9 SW 7.6 0.0 0.0
00:23 6.6 3.7 82 1008.8 6.9 SW 7.6 0.0 0.0
00:24 6.7 3.8 82 1008.7 6.9 SW 7.6 0.0 0.0
00:25 6.7 3.8 82 1008.8 5.4 SW 7.6 0.0 0.0
00:26 6.7 3.8 82 1008.9 6.0 SW 6.9 0.0 0.0
00:27 6.7 3.8 82 1008.9 9.2 SW 9.2 0.0 0.0
00:28 6.7 3.8 82 1008.9 9.2 SW 9.2 0.0 0.0
00:29 6.7 3.8 82 1008.7 8.3 S 9.2 0.0 0.0
00:30 6.7 3.8 82 1008.9 8.3 SW 9.2 0.0 0.0
00:31 6.7 3.8 82 1008.8 6.9 SW 9.2 0.0 0.0
00:33 6.7 3.8 82 1008.6 6.0 SW 9.2 0.0 0.0
00:34 6.7 3.8 82 1008.7 5.4 W 9.2 0.0 0.0
00:35 6.7 3.8 82 1008.7 6.0 SW 9.2 0.0 0.0
00:36 6.7 3.8 82 1008.7 6.0 SW 9.2 0.0 0.0
00:37 6.7 3.8 82 1008.6 6.0 SW 9.2 0.0 0.0
00:38 6.7 3.8 82 1008.5 6.0 SW 9.2 0.0 0.0
00:39 6.7 3.8 82 1008.7 5.4 SW 8.3 0.0 0.0
00:40 6.7 3.8 82 1008.7 5.4 SW 8.3 0.0 0.0
00:41 6.7 3.8 82 1008.4 6.9 SW 6.9 0.0 0.0
00:42 6.7 3.8 82 1008.4 6.9 W 6.9 0.0 0.0
00:43 6.8 3.9 82 1008.4 6.9 SW 8.3 0.0 0.0
00:44 6.8 3.9 82 1008.2 5.4 SW 8.3 0.0 0.0
00:45 6.8 3.9 82 1008.3 5.4 SW 8.3 0.0 0.0
00:47 6.9 4.0 82 1008.0 6.9 SW 8.3 0.0 0.0
00:48 6.9 4.0 82 1008.2 6.9 SW 8.3 0.0 0.0
00:49 6.9 4.0 82 1008.3 6.9 W 8.3 0.0 0.0
00:50 6.9 4.0 82 1008.1 7.6 SW 8.3 0.0 0.0
00:51 6.9 4.0 82 1008.1 6.9 SW 8.3 0.0 0.0
00:52 7.0 4.1 82 1008.1 9.2 W 9.2 0.0 0.0
00:53 7.0 4.1 82 1008.3 9.2 SW 9.2 0.0 0.0
00:54 7.0 4.1 82 1008.1 9.2 SW 9.2 0.0 0.0
00:55 7.0 4.3 83 1007.9 6.0 SW 9.2 0.0 0.0
00:56 7.0 4.3 83 1008.1 5.4 SW 9.2 0.0 0.0
00:57 7.1 4.4 83 1007.8 6.9 W 9.2 0.0 0.0
00:58 7.1 4.4 83 1007.8 6.9 W 9.2 0.0 0.0
00:59 7.1 4.4 83 1007.9 7.6 W 9.2 0.0 0.0
01:01 7.1 4.4 83 1007.8 7.6 W 9.2 0.0 0.0
01:02 7.1 4.4 83 1007.5 7.6 W 9.2 0.0 0.0
01:03 7.1 4.4 83 1007.7 7.6 W 9.2 0.0 0.0
01:04 7.1 4.4 83 1007.7 7.6 W 9.2 0.0 0.0
01:05 7.1 4.4 83 1007.8 7.6 W 8.3 0.0 0.0
01:06 7.1 4.4 83 1007.7 7.6 W 8.3 0.0 0.0
01:07 7.1 4.4 83 1007.6 8.3 SW 8.3 0.0 0.0
01:08 7.1 4.4 83 1007.7 6.9 SW 8.3 0.0 0.0
01:09 7.1 4.4 83 1007.6 6.9 S 8.3 0.0 0.0
01:10 7.1 4.4 83 1007.3 8.3 SW 8.3 0.0 0.0
01:11 7.1 4.4 83 1007.3 8.3 WSW 10.7 0.0 0.0
02:42 7.2 4.5 83 1004.5 9.8 W 13.6 0.8 0.4
02:43 7.2 4.5 83 1004.5 7.6 W 13.6 0.8 0.5
02:45 7.2 4.5 83 1004.5 6.9 SW 11.4 0.8 0.5
02:46 7.1 4.4 83 1004.4 7.6 SW 9.8 0.8 0.5
02:47 7.1 4.4 83 1004.5 7.6 SW 9.8 0.8 0.5
02:48 7.1 4.4 83 1004.5 7.6 W 9.8 1.5 0.6
02:49 7.1 4.4 83 1004.4 8.3 SW 9.8 0.8 0.6
02:50 7.1 4.4 83 1004.5 13.6 W 14.5 1.5 0.6
02:51 7.0 4.3 83 1004.2 12.1 WNW 14.5 2.3 0.7
02:52 7.0 4.3 83 1004.4 9.8 W 14.5 2.3 0.7
02:53 7.0 4.3 83 1004.2 9.2 SW 14.5 2.3 0.8
02:54 7.0 4.3 83 1004.1 10.7 SW 14.5 3.0 0.8
02:55 7.0 4.3 83 1004.0 9.8 SW 14.5 3.0 0.9
02:56 7.0 4.3 83 1004.2 10.7 W 14.5 2.3 0.9
02:57 6.9 4.2 83 1004.0 10.7 W 14.5 2.3 0.9
02:59 6.9 4.2 83 1003.8 13.0 SW 13.6 2.3 1.1
03:00 6.9 4.2 83 1003.9 13.0 SW 13.0 2.3 1.1
03:01 6.9 4.2 83 1003.8 13.0 SW 13.0 2.3 1.1
03:02 6.9 4.2 83 1003.9 13.0 SW 13.0 2.3 1.1
03:03 6.9 4.2 83 1003.6 13.0 SW 13.0 1.5 1.1
03:04 6.9 4.2 83 1003.8 13.0 SW 13.0 0.8 1.1
03:05 6.9 4.2 83 1003.8 13.0 SW 13.0 0.0 1.1
03:06 6.9 4.2 83 1003.4 13.0 SW 13.0 0.0 1.1
03:07 6.9 4.2 83 1003.6 9.8 W 13.0 0.8 1.1
03:08 6.9 4.2 83 1003.4 10.7 NW 13.0 0.8 1.1
03:09 6.9 4.2 83 1003.6 7.6 WSW 13.0 0.8 1.1
03:10 6.9 4.2 83 1003.3 8.3 SW 13.0 0.8 1.1
03:11 6.9 4.4 84 1003.4 14.5 W 14.5 0.8 1.2
03:13 6.9 4.4 84 1003.4 10.7 SW 14.5 0.8 1.2
03:14 6.9 4.4 84 1003.4 9.8 SW 14.5 0.8 1.3
03:15 6.9 4.4 84 1003.1 9.8 SW 14.5 1.5 1.3
03:16 6.9 4.4 84 1003.2 13.6 W 14.5 1.5 1.3
03:17 6.9 4.4 84 1003.0 13.6 SW 14.5 0.8 1.3
03:18 6.9 4.4 84 1003.2 10.7 W 14.5 0.8 1.3
03:19 6.9 4.4 84 1003.1 9.8 SW 14.5 0.8 1.3
03:20 6.9 4.4 84 1002.9 8.3 SW 14.5 0.8 1.3
03:21 6.9 4.4 84 1003.1 13.6 SW 14.5 0.8 1.3
03:22 6.9 4.4 84 1003.2 8.3 SW 13.6 0.8 1.3
03:23 6.9 4.4 84 1003.0 9.2 SW 13.6 0.8 1.3
03:24 6.9 4.4 84 1003.0 11.4 S 13.6 0.8 1.3
03:25 6.9 4.4 84 1002.9 11.4 S 13.6 0.0 1.3
03:27 6.8 4.3 84 1002.9 10.7 SW 13.6 0.0 1.3
03:28 6.8 4.3 84 1002.9 10.7 SW 13.6 0.0 1.3
03:29 6.8 4.3 84 1002.9 10.7 SW 13.6 0.0 1.3
03:30 6.8 4.3 84 1002.8 9.8 SW 13.6 0.0 1.3
03:31 6.8 4.3 84 1002.7 9.8 SW 13.6 0.0 1.3
03:32 6.8 4.3 84 1002.7 9.2 SW 11.4 0.8 1.4
03:33 6.8 4.3 84 1002.8 9.8 SSW 11.4 0.8 1.4
03:34 6.8 4.3 84 1002.6 9.8 SW 11.4 0.8 1.4
03:35 6.8 4.3 84 1002.6 10.7 SW 11.4 2.3 1.5
03:36 6.8 4.3 84 1002.8 10.7 SW 10.7 3.0 1.6
03:37 6.8 4.3 84 1002.8 13.0 W 13.0 3.8 1.8
03:38 6.9 4.4 84 1002.7 13.0 NW 13.0 4.5 1.8
03:39 6.9 4.4 84 1002.7 9.8 SW 13.0 5.3 1.9
03:41 6.9 4.4 84 1002.5 15.9 W 15.9 3.8 1.9
03:42 6.9 4.4 84 1002.4 11.4 SSW 15.9 2.3 2.0
03:43 6.8 4.3 84 1002.5 11.4 SW 15.9 2.3 2.0
03:44 6.8 4.3 84 1002.2 9.2 W 15.9 1.5 2.0
03:45 6.8 4.3 84 1002.3 7.6 W 15.9 1.5 2.0
03:46 6.8 4.3 84 1002.4 7.6 W 15.9 1.5 2.0
03:47 6.8 4.3 84 1002.2 7.6 W 15.9 1.5 2.0
03:48 6.8 4.3 84 1002.2 7.6 W 15.9 0.8 2.0
03:49 6.7 4.2 84 1002.2 9.2 SW 15.9 0.8 2.0
03:50 6.7 4.2 84 1002.0 7.6 SW 15.9 0.8 2.1
03:51 6.7 4.2 84 1002.1 13.0 W 15.9 1.5 2.1
03:52 6.6 4.1 84 1002.1 13.0 SW 13.0 1.5 2.1
03:53 6.6 4.1 84 1002.0 11.4 SW 13.0 1.5 2.2
03:55 6.6 4.1 84 1001.9 9.8 S 13.0 1.5 2.2
03:56 6.6 4.1 84 1001.7 9.8 S 13.0 0.8 2.2
03:57 6.6 4.1 84 1001.7 9.8 S 13.0 0.8 2.2
03:58 6.6 4.1 84 1001.8 7.6 S 13.0 0.8 2.3
03:59 6.6 4.1 84 1001.7 7.6 W 13.0 1.5 2.3
04:00 6.6 4.1 84 1001.6 7.6 SW 13.0 1.5 2.3
04:01 6.5 4.0 84 1001.6 9.2 SW 13.0 2.3 2.4
04:02 6.5 4.0 84 1001.5 9.2 W 13.0 2.3 2.5
04:03 6.5 4.0 84 1001.5 9.2 W 11.4 3.0 2.5
04:04 6.5 4.0 84 1001.4 11.4 SW 11.4 1.5 2.5
04:05 6.5 4.0 84 1001.4 9.8 SW 11.4 1.5 2.5
04:06 6.5 4.0 84 1001.3 7.6 S 11.4 0.8 2.5
04:07 6.6 4.1 84 1001.3 9.2 SW 11.4 0.8 2.5
04:09 6.6 4.1 84 1001.1 8.3 SW 11.4 0.0 2.5
04:10 6.6 4.1 84 1001.1 8.3 SW 11.4 0.8 2.5
04:11 6.6 4.1 84 1001.0 9.2 SW 11.4 0.8 2.6
04:12 6.6 4.1 84 1001.0 9.2 SW 11.4 1.5 2.6
04:13 6.6 4.1 84 1001.1 9.8 SW 11.4 1.5 2.6
04:14 6.6 4.1 84 1000.9 9.8 SW 9.8 1.5 2.6
04:15 6.6 4.1 84 1001.0 6.0 SW 9.8 1.5 2.6
04:16 6.6 4.1 84 1001.0 6.9 SW 9.8 1.5 2.6
04:17 6.6 4.1 84 1001.0 6.9 SW 9.8 0.8 2.7
04:18 6.6 4.1 84 1000.7 6.0 W 9.8 1.5 2.7
04:19 6.6 4.1 84 1000.9 8.3 WSW 9.8 2.3 2.8
04:20 6.6 4.3 85 1000.7 8.3 W 9.8 2.3 2.9
04:21 6.6 4.3 85 1000.9 7.6 SW 9.8 3.0 3.0
04:23 6.6 4.3 85 1000.7 9.2 W 9.8 3.8 3.0
04:24 6.6 4.3 85 1000.7 9.2 W 9.2 3.0 3.0
04:25 6.7 4.4 85 1000.6 8.3 SW 9.2 2.3 3.1
04:26 6.7 4.4 85 1000.4 8.3 SW 9.2 2.3 3.1
04:27 6.7 4.4 85 1000.6 8.3 W 9.2 2.3 3.1
04:28 6.7 4.4 85 1000.5 6.9 SW 9.2 1.5 3.1
04:29 6.7 4.4 85 1000.5 7.6 W 9.2 1.5 3.1
04:30 6.7 4.4 85 1000.3 7.6 W 9.2 1.5 3.1
04:31 6.7 4.4 85 1000.3 6.9 SW 9.2 0.8 3.1
04:32 6.7 4.4 85 1000.3 7.6 SW 9.2 1.5 3.3
04:33 6.7 4.4 85 1000.4 9.8 SW 9.8 1.5 3.3
04:34 6.7 4.4 85 1000.2 9.8 W 9.8 1.5 3.3
04:35 6.7 4.4 85 1000.2 9.8 SW 9.8 2.3 3.3
04:37 6.7 4.4 85 1000.2 9.8 NW 9.8 0.8 3.4
04:38 6.7 4.4 85 1000.2 12.1 W 12.1 1.5 3.4
04:39 6.7 4.4 85 1000.1 9.8 NW 12.1 1.5 3.4
04:40 6.7 4.4 85 1000.1 9.8 NW 12.1 0.8 3.4
04:41 6.7 4.4 85 999.9 6.9 SW 12.1 0.8 3.4
04:42 6.7 4.4 85 1000.0 9.8 SW 12.1 0.8 3.4
04:43 6.7 4.4 85 1000.0 11.4 SW 12.1 0.8 3.5
04:44 6.7 4.4 85 999.8 9.2 SW 12.1 0.8 3.5
04:45 6.7 4.4 85 999.8 10.7 W 12.1 0.8 3.5
04:46 6.7 4.4 85 999.9 12.1 W 12.1 1.5 3.5
04:47 6.7 4.4 85 999.6 9.2 SW 12.1 1.5 3.5
04:48 6.7 4.4 85 999.6 8.3 SW 12.1 0.8 3.6
04:49 6.7 4.4 85 999.5 9.8 SW 12.1 1.5 3.6
04:51 6.7 4.4 85 999.6 10.7 SW 12.1 0.8 3.7
04:52 6.7 4.4 85 999.5 10.7 W 12.1 1.5 3.7
04:53 6.7 4.4 85 999.5 8.3 SW 12.1 1.5 3.7
04:54 6.7 4.4 85 999.5 8.3 SW 12.1 0.8 3.7
04:55 6.7 4.4 85 999.4 11.4 SW 12.1 1.5 3.7
04:56 6.7 4.4 85 999.2 13.0 SW 13.0 1.5 3.7
04:57 6.7 4.4 85 999.2 8.3 S 13.0 0.8 3.8
04:58 6.7 4.5 86 999.2 9.2 SW 13.0 1.5 3.8
04:59 6.7 4.5 86 999.3 9.8 SW 13.0 1.5 3.8
05:00 6.7 4.5 86 999.1 8.3 W 13.0 0.8 3.8
05:01 6.7 4.5 86 999.3 8.3 W 13.0 0.8 3.8
05:02 6.7 4.5 86 999.1 8.3 W 13.0 0.8 3.8
05:03 6.7 4.5 86 998.9 8.3 W 13.0 0.0 3.8
05:04 6.7 4.5 86 999.0 8.3 W 13.0 0.0 3.8
05:05 6.7 4.5 86 999.1 8.3 W 13.0 0.0 3.8
05:06 6.7 4.5 86 999.0 8.3 W 11.4 0.0 3.8
05:07 6.7 4.5 86 999.1 8.3 SW 10.7 1.5 3.9
05:08 6.7 4.5 86 998.9 8.3 SW 10.7 1.5 4.0
05:09 6.7 4.5 86 999.0 10.7 SW 10.7 2.3 4.0
05:10 6.7 4.5 86 999.0 9.8 W 10.7 2.3 4.0
05:11 6.7 4.5 86 998.9 10.7 SW 10.7 3.0 4.0
05:12 6.7 4.5 86 998.8 10.7 SW 10.7 1.5 4.1
05:14 6.7 4.5 86 998.6 9.8 SW 10.7 1.5 4.2
05:15 6.7 4.5 86 998.7 9.8 SW 10.7 2.3 4.2
05:16 6.7 4.5 86 998.8 11.4 SE 11.4 1.5 4.2
05:17 6.7 4.5 86 998.6 8.3 SW 11.4 1.5 4.2
05:18 6.7 4.5 86 998.6 10.7 S 11.4 1.5 4.2
05:19 6.7 4.5 86 998.6 9.2 SW 11.4 1.5 4.2
05:20 6.8 4.6 86 998.4 10.7 SW 11.4 0.8 4.2
05:21 6.8 4.6 86 998.6 9.8 W 11.4 1.5 4.3
05:22 6.8 4.6 86 998.5 8.3 W 11.4 1.5 4.3
05:23 6.8 4.6 86 998.3 13.6 SW 13.6 0.8 4.3
05:24 6.8 4.6 86 998.3 13.6 SSW 13.6 0.8 4.3
05:25 6.8 4.6 86 998.3 8.3 SW 13.6 0.8 4.3
05:26 6.8 4.6 86 998.1 9.2 W 13.6 0.8 4.3
05:27 6.8 4.6 86 998.2 9.8 W 13.6 0.8 4.3
05:28 6.8 4.6 86 998.2 9.8 SW 13.6 1.5 4.4
05:29 6.8 4.6 86 998.0 13.6 W 13.6 1.5 4.4
05:30 6.8 4.6 86 998.1 13.6 S 13.6 1.5 4.4
05:31 6.7 4.5 86 997.9 13.6 SW 13.6 0.8 4.4
05:32 6.7 4.5 86 998.0 12.1 SSW 13.6 0.8 4.4
05:34 6.7 4.5 86 997.9 13.0 SW 13.6 0.0 4.4
05:35 6.7 4.5 86 997.8 12.1 SW 13.6 0.0 4.5
05:36 6.7 4.5 86 997.6 11.4 WSW 13.6 0.8 4.5
05:37 6.7 4.5 86 997.6 11.4 SW 13.6 0.8 4.5
05:38 6.7 4.5 86 997.7 10.7 SSW 13.6 0.8 4.5
05:39 6.7 4.5 86 997.6 13.0 SW 13.6 0.8 4.5
05:40 6.7 4.5 86 997.6 9.2 S 13.6 0.8 4.5
05:41 6.7 4.5 86 997.5 11.4 SW 13.6 0.0 4.5
05:42 6.7 4.5 86 997.5 13.0 SW 13.6 0.0 4.5
05:43 6.7 4.5 86 997.5 12.1 W 13.0 0.8 4.5
05:44 6.7 4.5 86 997.4 12.1 SW 13.0 0.8 4.5
05:45 6.7 4.5 86 997.4 9.8 SW 13.0 0.8 4.5
05:46 6.7 4.5 86 997.3 9.8 SW 13.0 0.8 4.5
05:47 6.7 4.5 86 997.5 8.3 SW 13.0 0.8 4.5
05:48 6.7 4.5 86 997.2 10.7 SW 13.0 0.0 4.5
05:50 6.7 4.5 86 997.2 12.1 SW 15.2 0.0 4.5
05:51 6.7 4.5 86 997.1 9.2 SW 15.2 0.0 4.5
05:52 6.7 4.5 86 997.1 9.2 SW 15.2 0.0 4.5
05:53 6.7 4.5 86 997.2 11.4 WSW 15.2 0.0 4.5
05:54 6.7 4.5 86 997.1 13.6 S 15.2 0.0 4.6
05:55 6.7 4.5 86 996.9 12.1 S 15.2 0.8 4.6
05:56 6.7 4.5 86 997.1 13.0 SW 15.2 0.8 4.6
05:57 6.7 4.5 86 997.1 15.9 SW 15.9 0.8 4.6
05:58 6.7 4.5 86 997.1 15.9 SW 15.9 0.8 4.6
05:59 6.7 4.5 86 997.1 13.6 W 15.9 0.8 4.6
06:00 6.7 4.7 87 997.0 15.9 SW 15.9 0.0 4.7
06:01 6.8 4.8 87 996.7 11.4 SW 15.9 0.8 4.7
06:02 6.8 4.8 87 996.6 9.2 SW 15.9 0.8 4.7
06:04 6.8 4.8 87 996.7 13.0 SW 15.9 0.8 4.7
06:05 6.8 4.8 87 996.9 12.1 SW 15.9 0.8 4.7
06:06 6.8 4.8 87 997.0 13.0 S 15.9 0.8 4.7
06:07 6.8 4.8 87 996.8 11.4 SW 15.9 0.8 4.7
06:08 6.8 4.8 87 996.7 11.4 SW 15.9 0.8 4.7
06:09 6.8 4.8 87 996.5 12.1 SW 15.9 1.5 4.8
06:10 6.8 4.8 87 996.6 15.2 SW 17.4 1.5 4.8
06:11 6.8 4.8 87 996.5 14.5 SW 17.4 0.8 4.8
06:12 6.8 4.8 87 996.4 14.5 S 17.4 0.8 4.8
06:13 6.8 4.8 87 996.4 12.1 SSW 17.4 0.8 4.8
06:14 6.8 4.8 87 996.3 13.6 W 17.4 0.0 4.8
06:15 6.8 4.8 87 996.2 15.2 SW 17.4 0.0 4.9
06:16 6.8 4.8 87 996.1 15.2 SW 17.4 0.8 4.9
06:17 6.8 4.8 87 996.1 12.1 SW 17.4 0.8 4.9
06:19 6.8 4.8 87 996.0 11.4 SW 15.2 0.8 4.9
06:20 6.8 4.8 87 996.2 10.7 SW 15.2 0.8 4.9
06:21 6.8 4.8 87 995.8 13.0 SW 15.2 0.0 4.9
06:22 6.8 4.8 87 996.1 9.8 SW 15.2 0.0 4.9
06:23 6.8 4.8 87 995.9 11.4 SW 15.2 0.0 4.9
06:24 6.8 4.8 87 996.0 11.4 SW 15.2 0.0 4.9
06:25 6.8 4.8 87 995.9 9.2 SW 15.2 0.0 4.9
06:26 6.8 4.8 87 995.7 8.3 WNW 15.2 0.0 4.9
06:27 6.8 4.8 87 995.9 13.6 SW 13.6 0.8 4.9
06:28 6.8 4.8 87 995.8 9.8 S 13.6 0.8 4.9
06:29 6.8 4.8 87 995.6 13.6 SW 13.6 0.8 4.9
06:30 6.8 4.8 87 995.7 13.6 SW 13.6 0.8 4.9
06:31 6.7 4.7 87 995.5 13.6 SW 13.6 0.8 4.9
06:33 6.7 4.7 87 995.6 9.2 W 13.6 0.0 4.9
06:34 6.7 4.7 87 995.5 9.8 SW 13.6 0.0 4.9
06:35 6.7 4.7 87 995.4 13.0 SW 13.6 0.8 5.0
06:36 6.7 4.7 87 995.5 13.0 SW 13.6 0.8 5.0
06:37 6.7 4.7 87 995.2 12.1 SW 13.6 0.8 5.0
06:38 6.7 4.7 87 995.4 9.8 SW 13.6 0.8 5.0
06:39 6.7 4.7 87 995.1 12.1 SW 13.6 0.8 5.0
06:40 6.7 4.7 87 995.4 11.4 SW 13.6 0.0 5.0
06:41 6.7 4.7 87 995.2 11.4 SW 13.6 0.0 5.0
06:42 6.7 4.7 87 995.1 8.3 SW 13.6 0.8 5.0
06:43 6.7 4.7 87 995.3 10.7 SW 13.6 0.8 5.0
06:44 6.7 4.7 87 995.4 8.3 W 13.6 0.8 5.0
06:45 6.7 4.7 87 994.8 10.7 S 13.6 0.8 5.0
06:46 6.7 4.7 87 995.0 10.7 SW 13.6 0.8 5.0
06:48 6.7 4.7 87 994.9 10.7 NNW 13.6 0.8 5.1
06:49 6.7 4.7 87 994.9 13.0 SW 13.6 0.8 5.1
06:50 6.7 4.7 87 994.9 11.4 W 13.6 0.8 5.1
06:51 6.7 4.7 87 994.7 13.6 SW 13.6 0.8 5.1
06:52 6.7 4.7 87 994.8 13.6 SW 13.6 0.8 5.1
06:53 6.7 4.7 87 994.8 13.0 SW 13.6 0.8 5.2
06:54 6.8 4.8 87 994.7 9.8 SW 13.6 0.8 5.2
06:55 6.8 4.8 87 994.7 11.4 SW 13.6 0.8 5.2
06:56 6.8 4.8 87 994.7 13.0 WSW 13.6 0.8 5.2
06:57 6.8 4.8 87 994.5 14.5 S 14.5 0.8 5.2
06:58 6.8 4.8 87 994.7 14.5 SSW 14.5 0.0 5.2
06:59 6.8 4.8 87 994.4 9.2 W 14.5 0.0 5.2
07:00 6.8 4.8 87 994.5 12.1 NW 14.5 0.0 5.2
07:01 6.8 4.8 87 994.5 12.1 NW 14.5 0.0 5.2
07:02 6.8 4.8 87 994.8 12.1 NW 14.5 0.0 5.2
07:04 6.8 4.8 87 994.3 12.1 NW 14.5 0.0 5.2
07:05 6.8 4.8 87 994.4 12.1 SW 14.5 0.0 5.2
07:06 6.8 4.8 87 994.5 10.7 S 14.5 0.8 5.2
07:07 6.8 4.8 87 994.2 12.1 SW 14.5 0.8 5.2
07:08 6.8 4.8 87 994.2 12.1 SW 14.5 0.8 5.2
07:09 6.8 4.8 87 994.5 12.1 SW 12.1 0.8 5.2
07:10 6.8 4.8 87 994.1 12.1 SW 12.1 1.5 5.3
07:11 6.8 4.8 87 994.0 9.2 SW 12.1 0.8 5.3
07:12 6.8 4.8 87 994.2 9.8 S 12.1 0.8 5.3
07:13 6.8 4.8 87 994.1 10.7 S 12.1 0.8 5.3
07:14 6.8 4.8 87 994.1 10.7 SW 12.1 0.8 5.3
07:15 6.8 4.8 87 994.2 11.4 SW 12.1 0.0 5.3
07:16 6.8 4.8 87 993.9 13.0 S 13.0 0.0 5.3
07:17 6.8 4.8 87 993.9 15.2 W 15.2 0.0 5.3
07:18 6.8 4.8 87 993.9 13.0 SW 15.2 0.0 5.3
07:19 6.8 4.8 87 993.8 12.1 W 15.2 0.0 5.4
07:20 6.8 4.8 87 994.0 12.1 SW 15.2 0.8 5.4
07:21 6.8 4.8 87 993.8 9.2 SW 15.2 0.8 5.4
07:22 6.8 4.8 87 993.9 9.8 SW 15.2 0.8 5.4
07:24 6.8 4.8 87 993.8 13.0 SW 15.2 0.8 5.4
07:25 6.8 4.8 87 993.9 11.4 SW 15.2 0.0 5.4
07:26 6.8 4.8 87 993.6 10.7 SW 15.2 0.0 5.4
07:27 6.8 4.8 87 993.6 9.8 SW 15.2 0.0 5.4
07:28 6.8 4.8 87 993.6 10.7 SW 13.0 0.0 5.4
07:29 6.8 4.8 87 993.6 10.7 S 13.0 0.8 5.4
07:30 6.8 4.8 87 993.5 9.8 SW 13.0 0.8 5.4
07:31 6.8 4.8 87 993.6 10.7 SSW 13.0 0.8 5.4
07:32 6.8 4.8 87 993.6 9.2 SW 13.0 0.8 5.4
07:33 6.8 4.8 87 993.7 9.8 WSW 13.0 0.8 5.4
07:34 6.8 4.8 87 993.4 10.7 S 13.0 0.0 5.4
07:35 6.8 4.8 87 993.5 9.8 SW 11.4 0.0 5.4
07:36 6.8 4.8 87 993.4 9.2 WNW 10.7 0.0 5.4
07:37 6.8 4.8 87 993.4 9.8 SW 10.7 0.0 5.4
07:38 6.8 4.8 87 993.3 12.1 SW 12.1 0.0 5.4
07:39 6.8 4.8 87 993.2 12.1 SW 12.1 0.0 5.5
07:40 6.8 4.8 87 993.0 9.2 SW 12.1 0.8 5.5
07:41 6.8 4.8 87 993.0 9.8 SW 12.1 0.8 5.5
07:43 6.8 4.8 87 992.9 12.1 SW 12.1 0.8 5.5
07:44 6.8 4.8 87 993.1 12.1 S 12.1 0.8 5.5
07:45 6.8 4.8 87 993.2 9.8 SW 12.1 0.0 5.5
07:46 6.7 4.7 87 992.9 9.2 W 12.1 0.0 5.5
07:47 6.7 4.7 87 993.1 9.8 SW 12.1 0.0 5.5
07:48 6.7 4.7 87 993.1 11.4 SW 12.1 0.0 5.5
07:49 6.7 4.7 87 992.9 10.7 SW 12.1 0.0 5.5
07:50 6.7 4.7 87 992.9 10.7 S 12.1 0.0 5.5
07:51 6.7 4.7 87 992.9 11.4 SW 12.1 0.0 5.5
07:52 6.7 4.7 87 992.9 10.7 SW 12.1 0.0 5.5
07:53 6.7 4.7 87 992.9 13.6 NW 13.6 0.0 5.5
07:54 6.7 4.7 87 992.9 11.4 SW 13.6 0.0 5.5
07:55 6.7 4.7 87 993.0 10.7 SSW 13.6 0.0 5.5
07:56 6.7 4.7 87 992.7 9.8 SW 13.6 0.0 5.5
07:57 6.7 4.7 87 992.6 11.4 W 13.6 0.0 5.5
07:58 6.7 4.7 87 992.7 11.4 W 13.6 0.0 5.5
07:59 6.7 4.7 87 992.7 12.1 SW 13.6 0.0 5.5
08:00 6.7 4.7 87 992.7 12.1 SW 13.6 0.0 5.5
08:03 6.7 4.7 87 992.6 12.1 SW 12.1 0.0 5.5
08:04 6.7 4.7 87 992.6 12.1 SW 12.1 0.0 5.5
08:05 6.7 4.7 87 992.5 12.1 SW 12.1 0.0 5.5
08:06 6.7 4.7 87 992.7 12.1 SW 12.1 0.0 5.5
08:07 6.8 4.8 87 992.7 10.7 SSW 12.1 0.8 5.5
08:08 6.8 4.8 87 992.7 10.7 SW 12.1 0.8 5.5
08:09 6.8 4.8 87 992.4 11.4 SW 12.1 0.8 5.5
08:10 6.8 4.8 87 992.3 7.6 SW 12.1 0.8 5.5
08:11 6.8 4.8 87 992.2 7.6 SW 12.1 0.8 5.5
08:12 6.8 4.8 87 992.2 9.8 W 12.1 0.8 5.6
08:13 6.8 4.8 87 992.3 9.2 SW 12.1 0.8 5.7
08:14 6.8 4.8 87 992.3 13.0 SW 13.0 1.5 5.7
08:15 6.8 4.8 87 992.3 13.0 SW 13.0 1.5 5.7
08:16 6.8 4.8 87 992.4 9.8 SW 13.0 2.3 5.7
08:17 6.8 4.8 87 992.3 8.3 SW 13.0 2.3 5.9
08:18 6.8 4.8 87 992.3 14.5 SW 14.5 3.0 5.9
08:19 6.8 4.8 87 992.1 19.0 SW 19.0 2.3 5.9
08:20 6.8 4.8 87 992.2 19.0 SW 19.0 3.0 5.9
08:21 6.8 4.8 87 992.1 13.6 NW 19.0 2.3 5.9
08:22 6.8 4.8 87 992.0 13.6 W 19.0 1.5 6.0
08:24 6.7 4.7 87 991.9 13.0 W 19.0 1.5 6.0
08:25 6.7 4.7 87 991.9 13.0 SW 19.0 0.8 6.0
08:26 6.7 4.7 87 991.8 9.8 W 19.0 0.8 6.0
08:27 6.6 4.6 87 992.0 8.3 SW 19.0 1.5 6.0
08:28 6.6 4.6 87 992.0 8.3 SW 19.0 0.8 6.0
08:29 6.6 4.6 87 991.8 10.7 SW 19.0 0.8 6.0
08:30 6.6 4.6 87 991.9 7.6 SW 19.0 0.8 6.0
08:31 6.6 4.6 87 991.8 6.9 SW 13.6 1.5 6.1
08:32 6.6 4.6 87 991.6 9.2 SW 13.6 0.8 6.1
08:33 6.6 4.6 87 991.7 12.1 W 13.6 0.8 6.1
08:34 6.5 4.5 87 991.5 8.3 W 13.0 0.8 6.1
08:35 6.5 4.5 87 991.5 9.2 W 13.0 0.8 6.1
08:36 6.5 4.5 87 991.7 9.8 SW 12.1 0.8 6.2
08:37 6.5 4.5 87 991.5 7.6 SW 12.1 0.8 6.2
08:38 6.5 4.5 87 991.5 7.6 SW 12.1 0.8 6.2
08:39 6.4 4.4 87 991.4 9.2 W 12.1 0.8 6.2
08:40 6.4 4.4 87 991.3 12.1 NW 12.1 0.8 6.2
08:41 6.4 4.4 87 991.3 7.6 SW 12.1 0.0 6.2
08:42 6.4 4.4 87 991.3 6.0 SSW 12.1 0.0 6.2
08:44 6.4 4.4 87 991.3 10.7 SW 12.1 0.0 6.2
08:45 6.4 4.4 87 991.1 10.7 W 12.1 0.0 6.2
08:46 6.4 4.4 87 991.2 9.2 SW 12.1 0.8 6.2
08:47 6.4 4.4 87 991.3 9.2 SW 12.1 0.8 6.2
08:48 6.4 4.4 87 991.3 6.9 SW 12.1 0.8 6.2
08:49 6.4 4.4 87 990.8 6.9 SW 12.1 0.8 6.2
08:50 6.3 4.3 87 991.1 8.3 SW 12.1 0.8 6.2
08:51 6.3 4.3 87 991.2 9.8 SW 10.7 0.0 6.2
08:52 6.3 4.3 87 991.0 9.2 SW 10.7 0.0 6.2
08:53 6.3 4.3 87 991.0 6.9 W 10.7 0.0 6.2
08:54 6.3 4.3 87 991.0 9.2 SW 10.7 0.0 6.2
08:55 6.3 4.3 87 990.8 9.2 SW 10.7 0.0 6.2
08:56 6.3 4.3 87 990.9 9.2 SW 9.8 0.0 6.2
08:57 6.3 4.3 87 990.8 9.2 W 9.8 0.0 6.3
08:58 6.3 4.3 87 990.9 9.8 SW 9.8 0.8 6.3
08:59 6.3 4.3 87 990.7 9.8 SW 9.8 0.8 6.3
09:01 6.3 4.3 87 990.8 9.8 SW 9.8 0.8 6.3
09:02 6.3 4.3 87 990.8 9.8 SW 9.8 0.8 6.3
09:03 6.3 4.3 87 990.7 9.8 SW 9.8 0.0 6.3
09:04 6.3 4.3 87 990.7 9.8 SW 9.8 0.0 6.3
09:05 6.3 4.3 87 990.6 9.8 SW 9.8 0.0 6.3
09:06 6.3 4.3 87 990.6 9.8 SW 9.8 0.0 6.3
09:07 6.4 4.4 87 990.5 13.6 W 13.6 0.0 6.3
09:08 6.4 4.4 87 990.5 10.7 W 13.6 0.8 6.4
09:09 6.4 4.4 87 990.4 9.8 W 13.6 0.8 6.4
09:10 6.4 4.4 87 990.4 9.8 W 13.6 0.8 6.4
09:11 6.4 4.4 87 990.4 9.8 SW 13.6 0.8 6.4
09:12 6.4 4.4 87 990.5 9.8 SW 13.6 0.8 6.4
09:13 6.4 4.4 87 990.3 6.9 WSW 13.6 0.0 6.4
09:14 6.4 4.4 87 990.3 6.9 SW 13.6 0.0 6.4
09:15 6.4 4.4 87 990.3 9.8 SW 13.6 0.0 6.4
09:16 6.4 4.4 87 990.3 9.8 SW 13.6 0.0 6.4
09:17 6.4 4.4 87 990.2 7.6 SW 10.7 0.0 6.4
09:18 6.4 4.4 87 990.2 6.9 SW 9.8 0.0 6.4
09:19 6.4 4.4 87 990.0 6.0 SW 9.8 0.0 6.4
09:21 6.4 4.4 87 990.0 6.0 SW 9.8 0.0 6.4
09:22 6.4 4.4 87 990.1 6.0 S 9.8 0.0 6.4
09:23 6.4 4.4 87 989.9 6.9 SW 9.8 0.0 6.4
09:24 6.4 4.4 87 989.9 6.9 SW 9.8 0.0 6.4
09:25 6.4 4.4 87 990.0 8.3 SW 9.8 0.0 6.4
09:26 6.4 4.4 87 989.9 8.3 SW 9.8 0.0 6.4
09:27 6.4 4.4 87 990.1 7.6 SW 8.3 0.0 6.4
09:28 6.4 4.4 87 989.8 7.6 SW 8.3 0.0 6.4
09:29 6.4 4.4 87 989.7 6.0 SW 8.3 0.8 6.4
09:30 6.4 4.4 87 989.8 8.3 SW 8.3 0.8 6.4
09:31 6.4 4.4 87 989.7 6.0 SW 8.3 0.8 6.4
09:32 6.4 4.4 87 989.5 6.9 SW 8.3 0.8 6.4
09:33 6.4 4.4 87 989.9 6.0 SW 8.3 1.5 6.5
09:34 6.5 4.5 87 989.6 9.8 S 9.8 0.8 6.5
09:35 6.5 4.5 87 989.5 7.6 WSW 9.8 0.8 6.6
09:36 6.5 4.5 87 989.5 7.6 WSW 9.8 1.5 6.6
09:38 6.5 4.5 87 989.3 6.9 SW 9.8 0.8 6.6
09:39 6.5 4.5 87 989.3 6.9 S 9.8 0.8 6.6
09:40 6.5 4.5 87 989.2 10.7 SW 10.7 0.8 6.6
09:41 6.5 4.5 87 989.5 7.6 W 10.7 0.0 6.6
09:42 6.5 4.5 87 989.4 6.0 SW 10.7 0.0 6.6
09:43 6.5 4.5 87 989.3 8.3 SW 10.7 0.0 6.6
09:44 6.5 4.5 87 989.3 8.3 W 10.7 0.0 6.6
09:45 6.4 4.4 87 989.1 9.2 SW 10.7 0.0 6.6
09:46 6.4 4.4 87 989.2 9.2 W 10.7 0.0 6.6
09:47 6.4 4.4 87 989.3 5.4 SW 10.7 0.0 6.6
09:48 6.4 4.4 87 989.2 6.0 W 10.7 0.0 6.6
09:49 6.4 4.4 87 989.2 6.9 W 10.7 0.0 6.6
09:50 6.4 4.4 87 989.1 9.2 SW 10.7 0.0 6.6
09:51 6.4 4.4 87 989.0 7.6 SW 9.2 0.8 6.6
09:52 6.4 4.4 87 989.0 6.0 SW 9.2 0.8 6.6
09:54 6.4 4.4 87 988.9 4.5 SW 9.2 0.8 6.6
09:55 6.4 4.4 87 988.9 6.0 W 9.2 0.8 6.6
09:56 6.4 4.4 87 988.9 6.0 W 9.2 0.0 6.6
09:57 6.4 4.4 87 988.9 9.8 W 9.8 0.0 6.6
09:58 6.4 4.4 87 988.8 9.8 W 9.8 0.0 6.6
09:59 6.4 4.4 87 989.0 8.3 SW 9.8 0.0 6.6
10:00 6.4 4.4 87 988.8 8.3 SW 9.8 0.0 6.6
10:01 6.4 4.4 87 988.8 7.6 SW 9.8 0.8 6.7
10:02 6.4 4.4 87 988.8 6.9 SW 9.8 0.8 6.7
10:03 6.4 4.4 87 988.8 6.9 SW 9.8 0.8 6.7
10:04 6.4 4.4 87 988.8 7.6 SW 9.8 0.8 6.7
10:05 6.4 4.4 87 988.7 7.6 SW 9.8 1.5 6.7
10:06 6.5 4.5 87 988.6 6.9 W 9.8 0.8 6.7
10:08 6.5 4.5 87 988.6 6.9 W 8.3 0.8 6.7
10:09 6.5 4.5 87 988.5 6.9 W 8.3 0.8 6.7
10:10 6.5 4.5 87 988.6 8.3 W 8.3 0.0 6.7
10:11 6.5 4.5 87 988.5 7.6 SW 8.3 0.0 6.7
10:12 6.5 4.5 87 988.4 6.9 SW 8.3 0.0 6.7
10:13 6.5 4.5 87 988.2 8.3 SW 8.3 0.0 6.7
10:14 6.6 4.6 87 988.2 8.3 SW 8.3 0.0 6.7
10:15 6.6 4.6 87 988.3 8.3 SW 8.3 0.0 6.7
10:16 6.6 4.6 87 988.4 7.6 SW 8.3 0.0 6.7
10:17 6.6 4.6 87 988.2 7.6 SW 8.3 0.0 6.8
10:18 6.6 4.6 87 988.4 7.6 SW 8.3 0.8 6.8
10:19 6.6 4.6 87 988.2 9.2 W 9.2 0.8 6.8
10:20 6.6 4.6 87 988.2 9.2 SSW 9.2 0.8 6.8
10:22 6.6 4.6 87 988.1 7.6 SW 9.2 0.8 6.8
10:23 6.6 4.6 87 988.1 9.8 SW 9.8 0.0 6.8
10:24 6.6 4.6 87 988.2 9.2 SW 9.8 0.0 6.8
10:25 6.7 4.7 87 988.1 8.3 SW 9.8 0.0 6.9
10:26 6.7 4.7 87 988.0 7.6 SW 9.8 0.8 6.9
10:27 6.7 4.7 87 988.2 7.6 SW 9.8 0.8 6.9
10:28 6.7 4.7 87 987.9 9.2 SW 9.8 0.8 6.9
10:29 6.7 4.7 87 988.0 10.7 NW 10.7 0.8 6.9
10:30 6.7 4.7 87 988.0 8.3 SW 10.7 0.8 6.9
10:31 6.7 4.7 87 987.8 9.2 W 10.7 0.0 6.9
10:32 6.7 4.7 87 988.0 8.3 SW 10.7 0.0 6.9
10:33 6.7 4.7 87 988.0 6.9 SW 10.7 0.0 6.9
10:34 6.7 4.7 87 987.7 7.6 SW 10.7 0.0 6.9
10:35 6.7 4.7 87 987.7 9.2 SW 10.7 0.0 6.9
10:37 6.7 4.7 87 987.8 8.3 W 10.7 0.0 6.9
10:38 6.8 5.0 88 987.8 8.3 SW 10.7 0.0 6.9
10:39 6.8 5.0 88 987.8 8.3 S 9.2 0.0 6.9
10:40 6.8 5.0 88 987.9 11.4 S 11.4 0.0 6.9
10:41 6.8 5.0 88 987.8 9.8 SW 11.4 0.0 6.9
10:42 6.8 5.0 88 987.6 9.8 SW 11.4 0.0 6.9
10:43 6.8 5.0 88 987.7 9.2 SW 11.4 1.5 7.0
10:44 6.8 5.0 88 987.6 9.2 SW 11.4 2.3 7.1
10:45 6.8 5.0 88 987.6 12.1 SW 14.5 2.3 7.1
10:46 6.8 5.0 88 987.8 10.7 SW 14.5 3.0 7.1
10:47 6.7 4.9 88 987.5 15.2 W 15.2 3.8 7.2
10:48 6.7 4.9 88 987.7 11.4 SW 15.2 2.3 7.2
10:49 6.7 4.7 87 987.7 11.4 W 15.2 2.3 7.3
10:51 6.6 4.6 87 987.6 15.9 SW 16.8 3.8 7.5
10:52 6.6 4.6 87 987.4 15.9 SW 16.8 3.8 7.6
10:53 6.6 4.6 87 987.5 13.6 W 16.8 4.5 7.6
10:54 6.6 4.6 87 987.4 14.5 SW 16.8 3.8 7.6
10:55 6.5 4.5 87 987.3 14.5 SW 16.8 3.0 7.6
10:56 6.5 4.5 87 987.3 15.2 SW 16.8 1.5 7.6
10:57 6.5 4.5 87 987.2 12.1 W 16.8 0.8 7.6
10:58 6.5 4.5 87 987.1 12.1 W 16.8 0.0 7.6
10:59 6.5 4.5 87 987.1 9.8 SW 16.8 0.8 7.6
11:00 6.5 4.5 87 987.2 9.2 SW 16.8 0.8 7.6
11:01 6.5 4.5 87 987.1 9.2 SW 15.9 0.8 7.6
11:02 6.5 4.5 87 987.0 9.2 SW 15.9 0.8 7.6
11:03 6.5 4.5 87 987.1 9.2 SW 15.2 0.8 7.6
11:05 6.6 4.6 87 986.8 13.6 WSW 15.2 0.0 7.6
11:06 6.6 4.6 87 986.8 12.1 NW 13.6 0.0 7.6
11:07 6.7 4.7 87 986.9 12.1 W 13.6 0.0 7.6
11:08 6.7 4.7 87 986.9 12.1 W 13.6 0.0 7.6
11:09 6.7 4.7 87 986.8 13.0 SW 13.6 0.0 7.6
11:10 6.8 4.8 87 986.6 13.6 W 13.6 0.0 7.6
11:11 6.8 4.8 87 986.9 12.1 SW 13.6 0.0 7.6
11:12 6.8 4.8 87 986.9 11.4 W 13.6 0.0 7.6
11:13 6.9 4.9 87 986.9 13.6 S 13.6 0.0 7.6
11:14 6.9 4.9 87 986.6 8.3 SW 13.6 0.0 7.6
11:15 6.9 4.9 87 986.6 12.1 SW 13.6 0.8 7.7
11:16 6.9 4.9 87 986.5 11.4 SW 13.6 0.8 7.7
11:17 7.1 5.2 88 986.6 11.4 SW 13.6 0.8 7.7
11:18 7.1 5.2 88 986.6 9.2 SW 13.6 0.8 7.7
11:19 7.2 5.3 88 986.3 13.0 SW 13.6 0.8 7.7
11:20 7.3 5.4 88 986.5 10.7 SW 13.6 0.0 7.7
11:22 7.4 5.5 88 986.2 15.9 W 15.9 0.0 7.7
11:23 7.5 4.6 82 986.3 13.6 SW 15.9 0.0 7.7
11:24 7.5 4.6 82 986.3 13.6 SW 15.9 0.0 7.7
11:25 7.5 4.6 82 986.4 13.6 SW 15.9 0.0 7.7
11:26 7.5 4.6 82 986.2 13.6 W 15.9 0.0 7.7
11:27 7.5 4.6 82 986.3 11.4 W 15.9 0.0 7.7
11:28 7.5 4.6 82 986.5 13.0 W 15.9 0.8 7.7
11:29 7.5 4.6 82 986.3 13.0 W 15.9 1.5 7.8
11:30 7.5 4.6 82 986.2 13.6 NW 15.9 2.3 7.9
11:31 7.4 5.4 87 986.4 8.3 W 15.9 3.8 8.0
11:32 7.4 5.4 87 986.2 15.2 W 15.9 4.5 8.1
11:33 7.3 5.3 87 986.2 13.0 SW 15.2 4.5 8.1
11:34 7.3 5.3 87 986.1 13.6 W 15.2 3.8 8.1
11:36 7.1 5.1 87 986.2 13.0 W 15.2 1.5 8.1
11:37 7.1 5.1 87 986.2 10.7 SW 15.2 0.8 8.1
11:38 7.0 5.0 87 985.9 10.7 W 15.2 0.0 8.1
11:39 7.0 4.8 86 986.1 11.4 W 15.2 0.0 8.1
11:40 7.0 4.8 86 985.9 12.1 NW 15.2 0.0 8.1
11:41 6.9 4.7 86 986.1 9.8 W 15.2 0.0 8.1
11:42 6.8 4.6 86 986.0 9.2 W 15.2 0.0 8.1
11:43 6.8 4.6 86 985.8 9.2 W 13.6 0.0 8.1
11:44 6.8 4.6 86 985.9 10.7 W 13.6 0.0 8.1
11:45 6.7 4.5 86 985.9 11.4 W 13.6 0.0 8.1
11:46 6.7 4.4 85 985.8 10.7 W 13.0 0.0 8.1
11:47 6.7 4.4 85 985.6 10.7 SW 12.1 0.0 8.1
11:48 6.7 4.4 85 985.7 12.1 SW 12.1 0.0 8.1
11:50 6.7 4.4 85 985.5 12.1 W 12.1 0.0 8.1
11:51 6.8 4.5 85 985.6 10.7 SW 12.1 0.0 8.1
11:52 6.8 4.5 85 985.8 9.2 W 12.1 0.0 8.1
11:53 6.9 4.6 85 985.6 11.4 SW 12.1 0.0 8.1
11:54 6.9 4.6 85 985.6 8.3 S 12.1 0.0 8.1
11:55 6.9 4.6 85 985.5 8.3 S 12.1 0.0 8.1
11:56 7.0 4.7 85 985.5 9.2 W 12.1 0.0 8.1
11:57 7.1 4.8 85 985.6 8.3 SW 12.1 0.0 8.1
11:58 7.1 4.8 85 985.6 8.3 SW 12.1 0.0 8.1
11:59 7.1 4.9 86 985.5 9.2 W 12.1 0.0 8.1
12:00 7.1 4.8 85 985.6 13.6 W 13.6 0.0 8.1
12:01 7.1 4.8 85 985.4 13.6 W 13.6 0.0 8.1
12:02 7.1 4.8 85 985.4 13.6 W 13.6 0.0 8.1
12:03 7.1 4.8 85 985.3 13.6 W 13.6 0.0 8.1
12:04 7.1 4.8 85 985.3 13.6 W 13.6 0.0 8.1
12:06 7.2 4.8 85 985.1 11.4 NW 13.6 0.0 8.1
12:07 7.2 4.8 85 985.2 9.8 W 13.6 0.0 8.1
12:08 7.2 4.8 85 985.2 9.8 W 13.6 0.0 8.1
12:09 7.2 4.8 85 985.2 9.8 W 13.6 0.0 8.1
12:10 7.2 4.7 84 985.3 10.7 NW 13.6 0.0 8.1
12:11 7.2 4.7 84 985.2 10.7 SW 13.6 0.0 8.1
12:12 7.2 4.7 84 985.0 8.3 SSE 13.6 0.0 8.1
12:13 7.2 4.7 84 985.0 9.8 W 13.6 0.0 8.1
12:14 7.2 4.7 84 985.0 9.8 SW 13.6 0.0 8.1
12:15 7.2 4.7 84 985.0 11.4 SW 11.4 0.0 8.1
12:16 7.2 4.7 84 984.9 11.4 W 11.4 0.0 8.1
12:17 7.2 4.7 84 984.7 7.6 NW 11.4 0.0 8.1
12:18 7.2 4.7 84 984.8 8.3 SW 11.4 0.0 8.1
12:19 7.2 4.7 84 984.9 7.6 SW 11.4 0.0 8.1
12:21 7.2 4.7 84 984.8 11.4 W 11.4 0.0 8.1
12:22 7.2 4.7 84 985.0 8.3 W 11.4 0.0 8.1
12:23 7.2 4.7 84 984.8 10.7 SW 11.4 0.0 8.1
12:24 7.2 4.7 84 984.9 10.7 W 11.4 0.8 8.2
12:25 7.2 4.7 84 984.7 15.2 W 15.2 0.8 8.2
12:26 7.1 4.4 83 985.0 15.9 W 15.9 0.8 8.3
12:27 7.1 4.4 83 984.7 12.1 SW 15.9 1.5 8.3
12:28 7.1 4.4 83 984.7 9.8 W 15.9 1.5 8.3
12:29 7.0 4.3 83 984.7 13.0 SW 15.9 0.8 8.3
12:30 7.0 4.3 83 984.6 18.3 WSW 18.3 0.8 8.3
12:31 7.0 4.3 83 984.8 11.4 SW 18.3 0.8 8.3
12:32 6.9 4.2 83 984.5 12.1 W 18.3 0.0 8.3
12:33 6.9 4.2 83 984.7 9.2 W 18.3 0.0 8.3
12:34 6.9 4.2 83 984.4 9.2 WSW 18.3 0.0 8.3
12:36 6.9 4.2 83 984.5 8.3 NW 18.3 0.0 8.3
12:37 6.9 4.4 84 984.4 9.8 SW 18.3 0.0 8.3
12:38 6.9 4.4 84 984.2 9.8 SW 18.3 0.0 8.3
12:39 6.9 4.4 84 984.3 6.9 W 18.3 0.0 8.3
12:40 6.9 4.4 84 984.3 9.8 W 18.3 0.0 8.3
12:41 6.9 4.4 84 984.2 7.6 W 12.1 0.0 8.3
12:42 6.9 4.4 84 984.4 11.4 SW 12.1 0.0 8.3
12:43 6.9 4.4 84 984.2 6.0 SW 12.1 0.0 8.3
12:44 6.9 4.4 84 984.3 10.7 SW 12.1 0.0 8.3
12:45 6.9 4.4 84 984.1 11.4 W 12.1 0.0 8.3
12:46 6.9 4.4 84 984.1 9.2 W 12.1 0.0 8.3
12:47 6.9 4.4 84 984.1 12.1 SSW 12.1 0.0 8.3
12:48 6.9 4.4 84 983.8 13.0 W 13.0 0.0 8.3
12:49 6.9 4.4 84 984.1 11.4 W 13.0 0.0 8.3
12:51 6.9 4.4 84 984.1 10.7 SW 13.0 0.0 8.3
12:52 6.9 4.4 84 983.9 11.4 W 13.0 0.0 8.3
12:53 6.9 4.4 84 983.9 11.4 SW 13.0 0.0 8.3
12:54 6.9 4.4 84 984.0 12.1 W 13.0 0.0 8.3
12:55 6.8 4.3 84 983.9 11.4 SW 13.0 0.0 8.3
12:56 6.8 4.3 84 983.9 8.3 W 13.0 0.0 8.3
12:57 6.8 4.3 84 983.7 9.8 W 13.0 0.0 8.3
12:58 6.8 4.3 84 984.0 10.7 W 13.0 0.0 8.3
12:59 6.8 4.3 84 983.7 10.7 W 13.0 0.0 8.3
13:00 6.8 4.3 84 983.9 11.4 SW 13.0 0.0 8.3
13:01 6.8 4.3 84 983.7 11.4 SW 12.1 0.0 8.3
13:02 6.8 4.3 84 983.8 11.4 SW 12.1 0.0 8.3
13:03 6.8 4.3 84 983.8 11.4 SW 12.1 0.0 8.3
13:04 6.8 4.3 84 983.7 11.4 SW 12.1 0.0 8.3
13:05 6.8 4.3 84 983.6 11.4 SW 12.1 0.0 8.3
13:07 6.7 4.2 84 983.6 12.1 W 12.1 0.0 8.3
13:08 6.7 4.2 84 983.5 9.2 WNW 12.1 0.0 8.3
13:09 6.7 4.2 84 983.7 7.6 W 12.1 0.0 8.3
13:10 6.7 4.2 84 983.5 9.8 W 12.1 0.0 8.3
13:11 6.7 4.2 84 983.5 9.2 S 12.1 0.0 8.3
13:12 6.6 4.1 84 983.7 9.2 NW 12.1 0.0 8.3
13:13 6.6 4.1 84 983.6 7.6 W 12.1 0.0 8.3
13:14 6.6 4.1 84 983.7 8.3 SW 12.1 0.0 8.3
13:15 6.6 4.1 84 983.5 7.6 W 12.1 0.0 8.3
13:16 6.6 4.1 84 983.5 7.6 W 12.1 0.0 8.3
13:17 6.6 4.1 84 983.4 9.2 SW 12.1 0.0 8.3
13:18 6.6 4.1 84 983.3 10.7 W 12.1 0.0 8.3
13:19 6.6 4.1 84 983.5 9.8 W 10.7 0.0 8.3
13:20 6.5 4.0 84 983.4 8.3 W 10.7 0.0 8.3
13:21 6.5 4.0 84 983.6 8.3 W 10.7 0.0 8.3
13:22 6.5 4.0 84 983.4 10.7 SW 10.7 0.0 8.3
13:23 6.5 4.0 84 983.2 9.8 W 10.7 0.0 8.3
13:24 6.5 4.0 84 983.4 6.9 W 10.7 0.0 8.3
13:25 6.5 4.0 84 983.3 8.3 W 10.7 0.0 8.3
13:27 6.5 4.0 84 983.0 10.7 SW 10.7 0.0 8.3
13:28 6.5 4.0 84 983.1 8.3 SW 10.7 0.0 8.3
13:29 6.5 4.0 84 983.1 9.8 SW 10.7 0.0 8.3
13:30 6.5 4.0 84 983.1 11.4 SW 11.4 0.0 8.3
13:31 6.5 4.0 84 983.1 7.6 SW 11.4 0.0 8.3
13:32 6.5 4.0 84 983.1 9.2 W 11.4 0.0 8.3
13:33 6.5 4.0 84 983.0 9.8 W 11.4 0.0 8.3
13:34 6.5 4.0 84 982.9 9.2 W 11.4 0.0 8.3
13:35 6.5 4.0 84 983.0 7.6 SW 11.4 0.0 8.3
13:36 6.5 4.0 84 982.8 7.6 W 11.4 0.0 8.3
13:37 6.5 4.0 84 982.8 7.6 W 11.4 0.0 8.3
13:38 6.5 4.0 84 982.8 6.9 SW 11.4 0.0 8.3
13:39 6.5 4.0 84 982.9 6.9 W 11.4 0.0 8.3
13:40 6.5 4.0 84 982.8 7.6 SW 9.8 0.0 8.3
13:41 6.5 4.0 84 982.8 6.0 SW 9.8 0.0 8.3
13:43 6.5 4.0 84 982.7 9.2 W 9.8 0.0 8.3
13:44 6.5 4.0 84 982.8 9.2 W 9.2 0.0 8.3
13:45 6.5 4.0 84 982.6 6.9 W 9.2 0.0 8.3
13:46 6.5 4.0 84 982.5 6.9 W 9.2 0.0 8.3
13:47 6.5 4.0 84 982.5 7.6 SW 9.2 0.0 8.3
13:48 6.5 4.0 84 982.5 6.0 SW 9.2 0.0 8.3
13:49 6.6 4.1 84 982.6 7.6 SW 9.2 0.0 8.3
13:50 6.6 4.1 84 982.7 7.6 W 9.2 0.0 8.3
13:51 6.6 4.1 84 982.7 8.3 W 9.2 0.0 8.3
13:52 6.6 4.1 84 982.5 8.3 W 9.2 0.0 8.3
13:53 6.6 4.1 84 982.7 6.0 W 9.2 0.0 8.3
13:54 6.6 4.1 84 982.4 6.0 SW 9.2 0.0 8.3
13:55 6.6 4.1 84 982.3 11.4 SW 11.4 0.0 8.3
13:56 6.6 4.1 84 982.5 11.4 SW 11.4 0.0 8.3
13:58 6.6 4.1 84 982.5 10.7 W 11.4 0.0 8.3
13:59 6.6 4.1 84 982.4 9.2 W 11.4 0.0 8.3
14:00 6.6 4.1 84 982.4 9.2 SW 11.4 0.0 8.3
14:01 6.6 4.1 84 982.3 6.0 W 11.4 0.0 8.3
14:02 6.5 4.0 84 982.3 6.9 S 11.4 0.0 8.3
14:03 6.5 4.0 84 982.2 8.3 SW 11.4 0.0 8.3
14:04 6.5 4.0 84 982.3 6.9 SW 11.4 0.0 8.3
14:05 6.6 4.1 84 982.0 6.0 SW 11.4 0.0 8.3
14:06 6.6 4.1 84 982.3 6.0 SW 11.4 0.0 8.3
14:07 6.6 4.1 84 982.1 4.5 W 11.4 0.0 8.3
14:08 6.6 4.1 84 982.0 5.4 W 9.2 0.0 8.3
14:09 6.6 4.1 84 982.2 5.4 W 9.2 0.0 8.3
14:10 6.6 4.1 84 982.2 4.5 W 9.2 0.0 8.3
14:11 6.6 4.1 84 982.0 4.5 NW 8.3 0.0 8.3
14:13 6.6 4.1 84 982.1 6.0 W 6.9 0.0 8.3
14:14 6.6 4.1 84 982.0 4.5 W 6.9 0.0 8.3
14:15 6.6 4.1 84 982.0 6.9 W 6.9 0.0 8.3
14:16 6.6 4.1 84 982.0 6.9 W 6.9 0.0 8.3
14:17 6.6 4.1 84 981.8 7.6 NW 7.6 0.0 8.3
14:18 6.6 4.1 84 981.9 8.3 SW 8.3 0.0 8.3
14:19 6.6 4.1 84 981.9 8.3 W 8.3 0.0 8.3
14:20 6.6 4.1 84 982.0 9.8 W 9.8 0.0 8.3
14:21 6.6 4.1 84 981.9 9.8 W 9.8 0.0 8.3
14:22 6.6 4.1 84 981.9 9.8 W 9.8 0.0 8.3
14:29 6.6 4.1 84 981.8 4.5 NW 9.8 0.0 8.3
14:30 6.6 4.1 84 981.7 7.6 W 9.8 0.0 8.3
14:31 6.6 4.1 84 981.6 5.4 W 9.8 0.0 8.3
14:32 6.5 4.0 84 981.7 7.6 W 9.8 0.0 8.3
14:33 6.5 4.0 84 981.9 7.6 W 9.2 0.0 8.3
14:34 6.5 4.0 84 981.6 6.9 W 9.2 0.0 8.3
14:35 6.5 4.0 84 981.8 7.6 W 9.2 0.0 8.3
14:36 6.5 4.0 84 981.9 5.4 W 7.6 0.0 8.3
14:37 6.5 4.0 84 981.8 5.4 W 7.6 0.0 8.3
14:38 6.4 3.9 84 981.6 6.9 W 7.6 0.0 8.3
14:40 6.4 3.9 84 981.7 3.8 WSW 7.6 0.0 8.3
14:41 6.4 3.9 84 981.6 5.4 W 7.6 0.0 8.3
14:42 6.4 3.9 84 981.4 5.4 W 7.6 0.0 8.3
14:43 6.4 3.9 84 981.5 3.8 W 7.6 0.0 8.3
14:44 6.4 3.9 84 981.5 3.8 W 7.6 0.0 8.3
14:45 6.4 3.7 83 981.4 5.4 W 7.6 0.0 8.3
14:46 6.4 3.7 83 981.5 3.8 W 7.6 0.0 8.3
14:47 6.4 3.7 83 981.5 5.4 W 6.9 0.0 8.3
14:48 6.4 3.7 83 981.4 5.4 W 6.9 0.0 8.3
14:49 6.4 3.7 83 981.4 3.8 WNW 5.4 0.0 8.3
14:50 6.4 3.7 83 981.4 5.4 W 6.9 0.8 8.3
14:51 6.4 3.7 83 981.3 4.5 W 6.9 1.5 8.4
14:52 6.4 3.7 83 981.6 6.9 SW 6.9 3.0 8.5
14:53 6.4 3.7 83 981.3 6.9 W 8.3 3.8 8.6
14:54 6.4 3.7 83 981.4 7.6 SW 8.3 3.8 8.6
14:55 6.3 3.6 83 981.5 7.6 W 8.3 3.8 8.6
14:56 6.3 3.6 83 981.5 5.4 NW 8.3 3.0 8.6
14:58 6.3 3.6 83 981.4 3.8 NW 8.3 0.8 8.6
14:59 6.3 3.6 83 981.4 4.5 SW 8.3 0.8 8.6
15:00 6.3 3.6 83 981.2 4.5 SW 8.3 0.0 8.6
15:01 6.3 3.6 83 981.3 4.5 SW 8.3 0.0 8.6
15:02 6.3 3.6 83 981.2 4.5 SW 8.3 0.0 8.6
15:03 6.3 3.6 83 981.3 4.5 SW 7.6 0.0 8.6
15:04 6.3 3.6 83 981.4 4.5 SW 7.6 0.0 8.6
15:05 6.3 3.6 83 981.2 4.5 SW 7.6 0.0 8.6
15:06 6.3 3.6 83 981.4 4.5 SW 5.4 0.0 8.6
15:07 6.2 3.5 83 981.3 7.6 W 7.6 0.8 8.7
15:08 6.2 3.5 83 981.5 7.6 W 7.6 0.8 8.7
15:09 6.2 3.5 83 981.3 7.6 W 7.6 0.8 8.7
15:10 6.2 3.5 83 981.3 6.9 NW 7.6 0.8 8.7
15:11 6.2 3.5 83 981.1 3.8 W 7.6 0.8 8.7
15:12 6.2 3.5 83 981.4 4.5 NW 7.6 0.0 8.7
15:13 6.2 3.5 83 981.3 6.9 W 7.6 0.0 8.7
15:14 6.2 3.5 83 981.5 6.9 SW 7.6 0.0 8.7
15:15 6.2 3.5 83 981.2 5.4 SW 7.6 0.0 8.7
15:16 6.2 3.5 83 981.1 3.8 WNW 7.6 0.0 8.7
15:17 6.2 3.5 83 981.4 6.9 WNW 7.6 0.0 8.7
15:18 6.2 3.5 83 981.1 6.9 W 7.6 0.0 8.7
15:19 6.1 3.4 83 981.1 3.8 W 6.9 0.0 8.7
15:20 6.1 3.4 83 981.1 6.9 W 6.9 0.0 8.7
15:21 6.1 3.4 83 981.0 3.8 NW 6.9 0.0 8.7
15:22 6.1 3.4 83 981.2 3.8 W 6.9 0.0 8.7
15:23 6.1 3.4 83 981.2 4.5 NW 6.9 0.0 8.7
15:24 6.1 3.4 83 981.2 6.0 W 6.9 0.0 8.7
15:25 6.1 3.4 83 981.2 5.4 SW 6.9 0.0 8.7
15:27 6.0 3.3 83 981.2 3.8 SW 6.9 0.0 8.7
15:28 6.0 3.3 83 981.2 5.4 SW 6.9 0.0 8.7
15:29 6.0 3.3 83 981.3 4.5 NW 6.9 0.0 8.7
15:30 6.0 3.3 83 981.4 6.9 NW 6.9 0.0 8.7
15:31 6.0 3.3 83 981.2 11.4 NW 11.4 0.0 8.7
15:32 6.0 3.3 83 981.2 11.4 NW 11.4 0.0 8.7
15:33 6.0 3.3 83 981.0 9.8 WNW 11.4 0.0 8.7
15:34 6.0 3.3 83 981.2 9.8 WNW 11.4 0.0 8.7
15:35 6.0 3.3 83 981.0 11.4 NW 11.4 0.0 8.8
15:36 6.0 3.3 83 981.1 11.4 W 11.4 1.5 8.8
15:37 6.0 3.3 83 981.2 8.3 NW 11.4 1.5 8.8
15:38 6.0 3.3 83 981.1 6.9 N 11.4 1.5 8.8
15:39 6.0 3.3 83 981.1 7.6 W 11.4 2.3 8.9
15:40 5.9 3.2 83 980.9 7.6 W 11.4 2.3 8.9
15:41 5.9 3.2 83 981.0 7.6 W 11.4 0.8 8.9
15:42 5.9 3.2 83 981.1 6.9 NW 11.4 0.8 8.9
15:43 5.9 3.2 83 981.1 6.9 NW 11.4 0.8 8.9
15:44 5.9 3.2 83 981.0 7.6 W 11.4 0.0 8.9
15:45 5.9 3.2 83 980.8 6.9 NW 11.4 0.0 8.9
15:46 5.9 3.2 83 981.0 6.9 NW 11.4 0.0 8.9
15:47 5.9 3.2 83 980.8 8.3 NW 9.2 0.0 8.9
15:48 5.9 3.2 83 981.0 9.2 NW 9.2 0.0 8.9
15:49 5.9 3.2 83 981.0 7.6 NE 9.2 0.0 8.9
15:50 5.9 3.2 83 980.9 6.0 W 9.2 0.0 8.9
15:51 5.9 3.2 83 980.8 5.4 NW 9.2 0.0 8.9
15:52 5.9 3.2 83 980.8 4.5 N 9.2 0.0 8.9
15:53 5.9 3.2 83 980.8 4.5 NW 9.2 0.0 8.9
15:54 5.9 3.2 83 980.6 5.4 NE 9.2 0.0 8.9
15:55 5.8 3.1 83 980.8 9.2 NW 9.2 0.0 8.9
15:56 5.8 3.1 83 980.7 9.2 N 9.2 0.0 8.9
15:58 5.8 3.1 83 980.8 11.4 NW 11.4 0.0 8.9
15:59 5.8 3.1 83 980.9 9.2 NW 11.4 0.0 8.9
16:00 5.8 3.1 83 980.8 6.9 NW 11.4 0.0 8.9
16:01 5.7 3.0 83 980.8 6.0 NW 11.4 0.0 8.9
16:02 5.7 3.0 83 980.7 8.3 W 11.4 0.0 8.9
16:03 5.7 3.0 83 980.7 8.3 N 11.4 0.0 8.9
16:04 5.7 3.0 83 980.8 9.8 NW 11.4 0.0 8.9
16:05 5.7 3.0 83 980.8 12.1 W 12.1 0.0 8.9
16:06 5.7 3.0 83 980.9 9.8 W 12.1 0.8 8.9
16:07 5.7 3.0 83 980.9 10.7 NW 12.1 1.5 9.0
16:08 5.6 2.9 83 980.7 9.8 W 12.1 1.5 9.0
16:09 5.6 2.9 83 980.7 7.6 NE 12.1 1.5 9.0
16:10 5.6 2.9 83 980.8 6.0 W 12.1 1.5 9.0
16:11 5.6 2.9 83 980.7 3.8 NE 12.1 0.8 9.0
16:12 5.6 2.9 83 980.8 4.5 W 12.1 0.0 9.0
16:13 5.6 2.9 83 980.8 5.4 S 12.1 0.0 9.0
16:14 5.6 2.9 83 980.7 3.1 NW 12.1 0.0 9.0
16:16 5.6 2.9 83 980.7 12.1 NW 12.1 0.0 9.0
16:17 5.6 2.9 83 980.6 4.5 NW 12.1 0.0 9.0
16:18 5.6 2.9 83 980.7 6.0 NNE 12.1 0.0 9.0
16:19 5.6 2.9 83 980.6 8.3 NW 12.1 0.0 9.0
16:20 5.6 2.9 83 980.5 8.3 NW 12.1 0.0 9.0
16:21 5.6 2.9 83 980.8 10.7 NW 13.0 0.0 9.0
16:22 5.6 2.9 83 980.7 8.3 N 13.0 0.0 9.0
16:23 5.6 2.9 83 980.7 10.7 NW 13.0 0.0 9.0
16:24 5.6 2.9 83 980.8 9.8 NW 13.0 0.0 9.0
16:25 5.6 2.9 83 980.7 8.3 W 13.0 0.0 9.0
16:26 5.6 2.9 83 980.8 7.6 NW 13.0 0.0 9.0
16:27 5.6 2.9 83 980.6 10.7 W 13.0 0.0 9.1
16:28 5.5 2.8 83 980.8 9.2 NW 13.0 0.8 9.1
16:29 5.5 2.8 83 980.7 9.2 N 13.0 0.8 9.1
16:30 5.5 2.8 83 980.5 9.2 NW 13.0 0.8 9.1
16:31 5.5 2.8 83 980.5 7.6 W 10.7 0.8 9.1
16:33 5.5 2.8 83 980.7 9.8 W 10.7 0.0 9.1
16:34 5.5 2.8 83 980.5 9.8 W 10.7 0.0 9.1
16:35 5.5 2.8 83 980.4 10.7 WNW 10.7 0.0 9.1
16:36 5.5 2.8 83 980.8 6.0 NW 10.7 0.0 9.1
16:37 5.5 2.8 83 980.7 7.6 W 10.7 0.0 9.1
16:38 5.5 2.8 83 980.6 8.3 NW 10.7 0.0 9.1
16:39 5.5 2.8 83 980.6 7.6 N 10.7 0.0 9.1
16:40 5.4 2.7 83 980.6 7.6 NW 10.7 0.0 9.1
16:41 5.4 2.7 83 980.6 7.6 W 10.7 0.0 9.1
16:42 5.4 2.7 83 980.7 9.8 N 10.7 0.0 9.1
16:43 5.4 2.7 83 980.7 10.7 NW 10.7 0.0 9.1
16:44 5.4 2.7 83 980.8 8.3 NW 10.7 0.0 9.1
16:45 5.4 2.7 83 980.5 9.8 NW 10.7 0.0 9.1
16:46 5.4 2.7 83 980.6 6.0 NW 10.7 0.0 9.1
16:47 5.4 2.7 83 980.8 7.6 NW 10.7 0.0 9.1
16:48 5.4 2.7 83 980.5 9.8 N 10.7 0.0 9.1
16:49 5.4 2.7 83 980.8 6.0 N 10.7 0.0 9.1
16:50 5.4 2.7 83 980.6 6.0 N 10.7 0.0 9.1
16:51 5.4 2.7 83 980.6 8.3 E 10.7 0.0 9.1
16:53 5.5 2.8 83 980.6 12.1 NW 12.1 0.0 9.1
16:54 5.5 2.8 83 980.5 10.7 NNE 12.1 0.8 9.1
16:55 5.5 2.8 83 980.4 14.5 NW 14.5 0.8 9.2
16:56 5.5 2.8 83 980.3 11.4 N 14.5 1.5 9.2
16:57 5.5 2.8 83 980.5 11.4 N 14.5 1.5 9.2
16:58 5.5 2.8 83 980.6 11.4 N 14.5 1.5 9.2
16:59 5.5 2.8 83 980.4 9.8 N 14.5 0.8 9.2
17:00 5.5 2.8 83 980.6 9.8 N 14.5 0.8 9.2
17:01 5.5 2.8 83 980.6 9.8 N 14.5 0.0 9.2
17:02 5.5 2.8 83 980.5 9.8 N 14.5 0.0 9.2
17:03 5.5 2.8 83 980.5 9.8 N 14.5 0.0 9.2
17:04 5.5 2.8 83 980.2 9.8 N 14.5 0.0 9.2
17:05 5.5 2.8 83 980.3 9.8 N 14.5 0.0 9.2
17:06 5.5 2.8 83 980.4 9.8 N 11.4 0.0 9.2
17:07 5.5 2.8 83 980.5 9.8 N 11.4 0.0 9.2
17:08 5.5 2.8 83 980.5 9.8 N 11.4 0.0 9.2
17:09 5.5 2.8 83 980.4 11.4 W 11.4 0.0 9.2
17:10 5.5 2.8 83 980.4 10.7 N 11.4 0.8 9.3
17:11 5.6 2.9 83 980.5 11.4 NW 11.4 2.3 9.5
17:12 5.6 2.9 83 980.3 9.8 N 11.4 3.8 9.6
17:13 5.6 2.9 83 980.7 8.3 NW 11.4 4.5 9.6
17:14 5.6 2.9 83 980.2 10.7 SW 11.4 4.5 9.6
17:15 5.5 2.8 83 980.3 14.5 SE 14.5 4.5 9.6
17:16 5.5 2.8 83 980.4 14.5 N 14.5 3.0 9.6
17:17 5.5 2.8 83 980.3 10.7 NW 14.5 1.5 9.6
17:19 5.5 2.8 83 980.4 9.8 N 14.5 0.8 9.6
17:20 5.5 2.8 83 980.4 13.6 W 14.5 0.0 9.6
17:21 5.5 2.8 83 980.4 11.4 NW 14.5 0.0 9.6
17:22 5.5 2.8 83 980.4 10.7 W 14.5 0.0 9.6
17:23 5.6 2.9 83 980.2 11.4 NW 14.5 0.0 9.6
17:24 5.6 2.9 83 980.5 11.4 N 14.5 0.0 9.6
17:26 5.6 2.9 83 980.4 16.8 NE 16.8 0.0 9.7
17:27 5.6 2.9 83 980.6 13.6 NW 16.8 0.8 9.7
17:28 5.6 2.9 83 980.6 9.8 N 16.8 0.8 9.7
17:29 5.6 2.9 83 980.1 12.1 NW 16.8 0.8 9.7
17:30 5.6 2.9 83 980.1 17.4 NW 17.4 0.8 9.7
17:31 5.6 2.9 83 980.2 15.2 NW 17.4 0.8 9.7
17:32 5.6 2.9 83 980.1 15.2 NW 17.4 0.0 9.7
17:33 5.6 2.9 83 980.3 15.2 NW 17.4 0.0 9.7
17:34 5.6 2.9 83 980.3 15.2 W 17.4 0.0 9.7
17:35 5.6 2.9 83 980.1 8.3 W 17.4 0.0 9.7
17:36 5.6 2.9 83 980.2 10.7 NW 17.4 0.0 9.7
17:37 5.6 2.8 82 980.2 14.5 NW 17.4 0.0 9.7
17:38 5.6 2.8 82 980.2 14.5 N 17.4 0.0 9.7
17:39 5.6 2.8 82 980.3 7.6 W 17.4 0.0 9.7
17:40 5.6 2.8 82 980.4 8.3 NW 15.2 0.0 9.7
17:41 5.6 2.8 82 980.2 14.5 W 15.2 0.0 9.7
17:43 5.6 2.8 82 980.2 9.2 N 15.2 0.0 9.7
17:44 5.6 2.8 82 980.2 9.8 NW 14.5 0.0 9.7
17:45 5.6 2.8 82 980.3 9.8 W 14.5 0.0 9.7
17:46 5.6 2.8 82 980.2 9.8 N 14.5 0.0 9.7
17:47 5.6 2.8 82 980.3 9.8 W 14.5 0.0 9.7
17:48 5.6 2.8 82 980.1 12.1 NW 14.5 0.0 9.7
17:49 5.6 2.8 82 980.4 13.0 NW 14.5 0.0 9.7
17:50 5.6 2.8 82 980.1 8.3 SW 14.5 0.0 9.7
17:51 5.7 2.9 82 980.3 13.6 SE 14.5 0.0 9.7
17:52 5.7 2.9 82 980.3 13.6 NW 13.6 0.8 9.8
17:53 5.7 2.9 82 980.5 16.8 NW 16.8 0.8 9.8
17:54 5.7 2.9 82 980.2 9.8 W 16.8 0.8 9.8
17:55 5.7 2.9 82 980.1 17.4 NW 17.4 0.8 9.8
17:56 5.7 2.9 82 980.3 11.4 W 17.4 0.8 9.8
17:57 5.7 2.9 82 980.2 11.4 NE 17.4 0.0 9.8
17:58 5.7 2.9 82 980.4 18.3 NW 18.3 0.0 9.8
17:59 5.6 2.8 82 980.3 13.6 S 18.3 0.0 9.8
18:01 5.6 2.8 82 980.2 13.0 NW 18.3 0.0 9.8
18:02 5.6 2.8 82 980.2 9.8 N 18.3 0.0 9.8
18:04 5.5 2.5 81 980.4 9.8 S 18.3 0.0 9.8
18:05 5.5 2.5 81 980.3 9.8 W 18.3 0.0 9.8
18:06 5.4 2.4 81 980.4 8.3 NW 18.3 0.0 9.8
18:07 5.4 2.4 81 980.2 11.4 NW 18.3 0.0 9.8
18:08 5.4 2.4 81 980.4 11.4 NE 13.6 0.0 9.8
18:09 5.4 2.4 81 980.4 12.1 N 13.6 0.0 9.8
18:10 5.4 2.4 81 980.2 12.1 NNW 13.6 0.0 9.8
18:11 5.4 2.4 81 980.3 10.7 N 12.1 0.0 9.8
18:12 5.3 2.3 81 980.2 10.7 W 12.1 0.8 9.8
18:13 5.3 2.3 81 980.6 12.1 W 12.1 0.8 9.8
18:14 5.3 2.3 81 980.5 10.7 NW 12.1 0.8 9.8
18:15 5.3 2.3 81 980.3 11.4 N 12.1 0.8 9.8
18:16 5.3 2.3 81 980.4 11.4 NW 12.1 0.8 9.8
18:17 5.3 2.3 81 980.4 11.4 NW 12.1 0.0 9.8
18:18 5.3 2.3 81 980.2 13.0 NW 13.0 0.0 9.8
18:19 5.3 2.3 81 980.1 13.0 N 13.0 0.0 9.8
18:20 5.3 2.3 81 980.3 9.8 N 13.0 0.0 9.8
18:21 5.3 2.3 81 980.5 8.3 NW 13.0 0.0 9.8
18:22 5.3 2.3 81 980.2 4.5 NW 13.0 0.0 9.8
18:23 5.3 2.3 81 980.3 8.3 NW 13.0 0.8 9.9
18:25 5.2 2.2 81 980.3 8.3 NW 13.0 0.8 9.9
18:26 5.2 2.2 81 980.3 8.3 N 13.0 0.8 9.9
18:27 5.2 2.2 81 980.2 9.2 NW 13.0 0.8 9.9
18:28 5.2 2.2 81 980.2 11.4 NW 13.0 0.0 9.9
18:29 5.2 2.2 81 980.2 12.1 NW 13.0 0.0 9.9
18:30 5.2 2.2 81 980.2 11.4 W 12.1 0.0 9.9
18:31 5.2 2.2 81 980.2 9.2 N 12.1 0.0 9.9
18:32 5.2 2.2 81 980.2 19.0 NW 19.0 0.0 9.9
18:33 5.1 2.1 81 980.4 19.0 NW 19.0 0.0 10.0
18:34 5.1 2.1 81 980.4 13.0 SE 19.0 0.8 10.0
18:35 5.1 2.1 81 980.4 13.0 N 19.0 1.5 10.0
18:36 5.1 2.1 81 980.2 13.0 NW 19.0 1.5 10.0
18:37 5.0 2.0 81 980.2 12.1 N 19.0 1.5 10.0
18:38 5.0 2.0 81 980.4 9.8 N 19.0 1.5 10.0
18:39 4.9 1.9 81 980.2 9.2 W 19.0 0.8 10.0
18:40 4.9 1.9 81 980.4 12.1 N 19.0 0.0 10.0
18:41 4.9 1.9 81 980.4 6.9 NW 19.0 0.0 10.0
18:42 4.9 1.9 81 980.1 10.7 NE 19.0 0.0 10.0
18:43 4.9 1.9 81 980.3 10.7 W 19.0 0.0 10.0
18:44 4.9 1.9 81 980.2 7.6 E 13.0 0.0 10.0
18:45 4.9 1.9 81 980.3 13.0 NE 13.0 0.0 10.1
18:46 4.9 1.9 81 980.5 7.6 N 13.0 0.8 10.1
18:47 4.9 1.9 81 980.1 6.9 W 13.0 0.8 10.1
18:48 4.9 1.9 81 980.3 7.6 N 13.0 0.8 10.1
18:49 4.9 1.9 81 980.3 11.4 NW 13.0 0.8 10.1
18:50 4.9 1.9 81 980.4 10.7 SW 13.6 0.8 10.1
18:51 5.0 2.0 81 980.3 14.5 NW 14.5 0.0 10.1
18:52 5.0 2.0 81 980.3 16.8 NW 16.8 0.0 10.1
18:53 5.0 2.2 82 980.2 9.2 W 16.8 0.0 10.1
18:54 5.1 2.3 82 980.4 12.1 NW 16.8 0.8 10.2
18:55 5.1 2.3 82 980.4 17.4 NW 17.4 1.5 10.2
18:56 5.1 2.3 82 980.3 13.0 NW 17.4 1.5 10.2
18:57 5.0 2.2 82 980.3 11.4 NW 17.4 1.5 10.2
18:59 5.0 2.2 82 980.3 7.6 W 17.4 0.8 10.2
19:00 5.0 2.2 82 980.3 10.7 N 17.4 0.8 10.3
19:01 5.0 2.2 82 980.2 10.7 N 17.4 0.8 10.3
19:02 5.0 2.2 82 980.4 10.7 N 17.4 0.8 10.3
19:03 5.0 2.2 82 980.4 10.7 N 17.4 0.8 10.3
19:04 5.0 2.2 82 980.3 10.7 N 17.4 0.8 10.3
19:05 5.0 2.2 82 980.3 10.7 N 13.0 0.0 10.3
19:06 5.0 2.2 82 980.6 10.7 N 13.0 0.0 10.3
19:07 4.9 2.1 82 980.6 17.4 NW 17.4 3.8 10.6
19:08 4.8 2.0 82 980.5 17.4 NW 17.4 4.5 10.8
19:09 4.7 1.7 81 980.3 10.7 NW 17.4 6.0 10.8
19:10 4.6 1.6 81 980.5 9.8 NW 17.4 6.8 10.9
19:11 4.5 1.5 81 980.5 13.6 NW 17.4 7.6 11.0
19:12 4.5 1.5 81 980.3 14.5 W 17.4 4.5 11.0
19:13 4.5 1.5 81 980.4 9.2 SW 17.4 4.5 11.1
19:14 4.5 1.5 81 980.3 12.1 SW 17.4 3.8 11.1
19:15 4.4 1.4 81 980.5 9.2 SW 17.4 3.0 11.2
19:16 4.4 1.4 81 980.4 13.6 NW 17.4 3.0 11.2
19:18 4.3 1.3 81 980.4 9.8 N 17.4 2.3 11.2
19:19 4.3 1.3 81 980.4 8.3 NW 14.5 2.3 11.3
19:20 4.3 1.3 81 980.6 7.6 NW 14.5 3.0 11.3
19:21 4.3 1.3 81 980.5 4.5 SW 14.5 2.3 11.3
19:22 4.3 1.3 81 980.4 10.7 W 14.5 2.3 11.3
19:23 4.3 1.3 81 980.6 6.0 W 13.6 1.5 11.3
19:24 4.3 1.3 81 980.4 10.7 W 13.6 0.8 11.4
19:25 4.3 1.3 81 980.2 19.7 W 19.7 0.8 11.4
19:26 4.3 1.3 81 980.8 9.2 W 19.7 0.8 11.4
19:27 4.3 1.3 81 980.7 12.1 NW 19.7 1.5 11.5
19:28 4.3 1.3 81 980.5 6.9 W 19.7 1.5 11.5
19:29 4.2 1.2 81 980.5 9.8 NW 19.7 1.5 11.5
19:30 4.2 1.2 81 980.7 9.8 NW 19.7 1.5 11.6
19:31 4.2 1.2 81 980.8 9.2 W 19.7 2.3 11.7
19:33 4.0 1.0 81 980.7 8.3 N 19.7 3.0 11.7
19:34 4.0 1.0 81 980.8 8.3 W 19.7 3.0 11.8
19:35 4.0 1.0 81 980.5 4.5 W 19.7 3.0 11.8
19:36 4.0 1.0 81 980.5 4.5 W 13.0 2.3 11.8
19:37 3.9 0.9 81 980.6 6.9 W 13.0 1.5 11.8
19:38 3.9 0.9 81 980.4 6.9 NW 12.1 0.8 11.8
19:39 3.9 0.9 81 980.4 6.0 NW 9.8 1.5 11.8
19:40 3.9 0.9 81 980.7 7.6 NW 9.8 0.8 11.8
19:41 3.9 0.9 81 980.4 9.2 N 10.7 0.8 11.8
19:42 3.9 0.9 81 980.5 9.2 N 10.7 0.8 11.8
19:43 3.9 0.9 81 980.4 6.0 W 10.7 0.8 11.8
19:44 3.9 0.9 81 980.5 9.8 SW 10.7 0.8 11.9
19:45 3.9 0.9 81 980.6 6.9 NW 10.7 0.8 11.9
19:46 3.9 0.9 81 980.4 6.9 NW 10.7 0.8 11.9
19:47 3.9 0.9 81 980.5 10.7 SW 10.7 1.5 12.0
19:48 3.9 0.9 81 980.3 10.7 NW 10.7 1.5 12.0
19:49 3.9 0.9 81 980.6 11.4 SW 11.4 0.8 12.0
19:50 4.0 1.0 81 980.5 11.4 NW 11.4 0.8 12.0
19:51 4.0 1.0 81 980.2 9.8 W 11.4 0.8 12.0
19:53 4.1 1.1 81 980.3 6.0 NW 11.4 0.8 12.0
19:54 4.1 1.1 81 980.6 6.0 NW 11.4 0.8 12.0
19:55 4.2 1.4 82 980.4 9.2 W 11.4 0.8 12.0
19:56 4.2 1.4 82 980.4 6.9 W 11.4 0.8 12.1
19:57 4.2 1.4 82 980.6 9.2 N 11.4 0.8 12.1
19:58 4.3 1.5 82 980.5 9.2 W 11.4 0.8 12.1
19:59 4.3 1.5 82 980.5 9.8 NE 11.4 0.8 12.1
20:00 4.3 1.5 82 980.5 5.4 W 11.4 1.5 12.2
20:01 4.3 1.5 82 980.4 15.2 W 15.2 1.5 12.2
20:02 4.4 1.6 82 980.6 13.0 N 15.2 0.8 12.2
20:03 4.4 1.6 82 980.6 16.8 W 16.8 1.5 12.2
20:04 4.4 1.6 82 980.6 12.1 WSW 16.8 1.5 12.2
20:05 4.5 1.7 82 980.5 13.6 N 16.8 0.8 12.2
20:06 4.5 1.7 82 980.5 13.6 N 16.8 0.8 12.2
20:07 4.5 1.7 82 980.5 12.1 NW 16.8 0.8 12.3
20:08 4.5 1.7 82 980.5 6.9 N 16.8 0.8 12.3
20:09 4.5 1.7 82 980.5 13.0 SW 16.8 0.8 12.3
20:11 4.5 1.7 82 980.3 11.4 N 16.8 0.8 12.3
20:12 4.5 1.7 82 980.4 13.6 NE 16.8 0.8 12.3
20:13 4.5 1.7 82 980.4 13.6 NW 13.6 0.0 12.3
20:14 4.5 1.7 82 980.3 13.0 NW 13.6 0.0 12.3
20:15 4.5 1.7 82 980.6 7.6 NW 13.6 0.8 12.3
20:16 4.5 1.7 82 980.6 10.7 N 13.6 0.8 12.3
20:17 4.5 1.7 82 980.4 8.3 S 13.6 0.8 12.3
20:18 4.5 1.7 82 980.4 6.9 N 13.6 0.8 12.3
20:19 4.5 1.7 82 980.7 11.4 NW 13.6 0.8 12.3
20:20 4.5 1.7 82 980.6 11.4 N 13.6 0.0 12.3
20:21 4.5 1.7 82 980.6 9.8 NW 13.6 0.0 12.3
20:22 4.5 1.7 82 980.6 9.8 NW 13.6 0.0 12.3
20:23 4.5 1.7 82 980.5 9.2 N 13.6 0.0 12.3
20:24 4.5 1.7 82 980.5 6.9 N 11.4 0.0 12.3
20:25 4.5 1.7 82 980.7 8.3 N 11.4 0.0 12.4
20:27 4.5 1.7 82 980.7 7.6 W 11.4 0.8 12.4
20:28 4.5 1.7 82 980.5 7.6 W 11.4 0.8 12.4
20:29 4.5 1.7 82 980.5 7.6 W 11.4 0.8 12.4
20:30 4.5 1.7 82 980.6 11.4 NW 11.4 0.8 12.4
20:31 4.5 1.7 82 980.5 9.2 NW 11.4 0.0 12.4
20:32 4.5 1.7 82 980.6 9.2 NW 11.4 0.0 12.4
20:33 4.6 1.8 82 980.9 9.8 W 12.1 0.0 12.4
20:34 4.6 1.8 82 980.7 18.3 NW 18.3 0.0 12.4
20:35 4.6 1.8 82 980.7 18.3 NW 18.3 0.0 12.4
20:36 4.6 1.8 82 980.6 12.1 NW 18.3 0.8 12.5
20:37 4.6 1.8 82 980.6 14.5 SW 18.3 0.8 12.5
20:38 4.6 1.8 82 980.8 13.6 NW 18.3 0.8 12.5
20:39 4.6 1.8 82 980.5 13.6 NW 18.3 0.8 12.5
20:40 4.6 1.6 81 980.6 12.1 SW 18.3 0.8 12.5
20:41 4.6 1.6 81 980.6 8.3 N 18.3 0.0 12.5
20:42 4.6 1.6 81 980.6 7.6 NW 18.3 0.0 12.5
20:43 4.6 1.6 81 980.4 12.1 NW 18.3 0.0 12.5
20:45 4.6 1.6 81 980.4 9.2 W 14.5 0.0 12.5
20:46 4.6 1.6 81 980.6 9.2 NW 14.5 0.0 12.5
20:47 4.6 1.6 81 980.4 8.3 N 14.5 0.0 12.5
20:48 4.6 1.6 81 980.4 8.3 N 14.5 0.0 12.5
20:49 4.6 1.6 81 980.4 13.6 NW 14.5 0.0 12.5
20:50 4.6 1.6 81 980.4 13.0 SW 14.5 0.0 12.5
20:51 4.6 1.6 81 980.5 14.5 NW 14.5 0.8 12.5
20:52 4.7 1.7 81 980.5 14.5 NW 14.5 0.8 12.5
20:53 4.7 1.7 81 980.3 11.4 NW 14.5 0.8 12.5
20:54 4.7 1.7 81 980.5 11.4 E 14.5 0.8 12.5
20:55 4.7 1.7 81 980.7 13.0 N 14.5 0.8 12.5
20:56 4.8 1.8 81 980.4 14.5 NW 14.5 0.0 12.5
20:57 4.8 1.8 81 980.6 13.6 N 14.5 0.0 12.5
20:58 4.8 1.8 81 980.6 13.0 W 14.5 0.0 12.5
20:59 4.8 1.8 81 980.6 12.1 N 17.4 0.0 12.5
21:01 4.8 1.8 81 980.5 12.1 N 17.4 0.0 12.5
21:02 4.8 1.8 81 980.4 12.1 N 17.4 0.0 12.5
21:03 4.8 1.8 81 980.6 12.1 N 17.4 0.0 12.5
21:04 4.8 1.8 81 980.5 12.1 N 17.4 0.0 12.5
21:05 4.8 1.8 81 980.5 12.1 N 17.4 0.0 12.5
21:06 4.8 1.8 81 980.4 12.1 N 17.4 0.0 12.5
21:07 4.7 1.7 81 980.6 10.7 WNW 17.4 0.8 12.6
21:08 4.7 1.7 81 980.6 12.1 W 17.4 0.8 12.6
21:09 4.7 1.7 81 980.6 6.0 W 17.4 0.8 12.6
21:10 4.6 1.6 81 980.6 9.2 NW 12.1 0.8 12.6
21:11 4.6 1.6 81 980.4 9.2 NW 12.1 0.8 12.6
21:12 4.6 1.6 81 980.5 13.0 NW 13.0 0.0 12.6
21:13 4.5 1.4 80 980.7 12.1 W 13.0 0.0 12.6
21:14 4.5 1.4 80 980.6 9.2 SSW 13.0 0.0 12.6
21:15 4.5 1.4 80 980.6 12.1 W 13.0 0.0 12.6
21:17 4.5 1.4 80 980.5 10.7 E 13.0 0.0 12.6
21:18 4.4 1.3 80 980.5 9.2 NW 13.0 0.0 12.6
21:19 4.4 1.3 80 980.6 10.7 W 13.0 0.0 12.6
21:20 4.4 1.3 80 980.7 9.8 WNW 13.0 0.0 12.6
21:21 4.4 1.3 80 980.6 12.1 NW 13.0 0.0 12.6
21:22 4.4 1.3 80 980.6 10.7 NW 13.0 0.0 12.6
21:23 4.4 1.1 79 980.4 12.1 SW 12.1 0.0 12.6
21:24 4.4 1.1 79 980.7 11.4 E 12.1 0.0 12.6
21:26 4.4 1.1 79 980.6 13.6 W 13.6 0.0 12.6
21:27 4.5 1.2 79 980.5 12.1 NNE 13.6 0.0 12.6
21:28 4.5 1.4 80 980.6 9.8 NW 13.6 0.0 12.6
21:29 4.5 1.4 80 980.6 9.8 NW 13.6 0.0 12.6
21:30 4.5 1.4 80 980.5 15.2 NW 15.2 0.8 12.7
21:31 4.5 1.4 80 980.8 15.2 NW 15.2 0.8 12.7
21:32 4.5 1.4 80 980.4 15.2 NW 15.2 0.8 12.7
21:33 4.6 1.5 80 980.7 14.5 NW 15.2 0.8 12.7
21:34 4.6 1.5 80 980.6 15.9 NW 15.9 0.8 12.7
21:35 4.6 1.5 80 980.6 15.9 N 15.9 0.0 12.7
21:36 4.6 1.5 80 980.7 15.2 N 15.9 0.0 12.7
21:37 4.7 1.5 80 980.8 15.9 NW 15.9 0.0 12.7
21:38 4.7 1.5 80 980.8 20.6 NW 20.6 0.0 12.7
21:39 4.7 1.4 79 980.8 19.0 NW 20.6 0.0 12.7
21:40 4.7 1.4 79 980.7 19.0 NW 20.6 0.0 12.7
21:41 4.7 1.4 79 980.4 14.5 NW 20.6 0.0 12.7
21:42 4.7 1.4 79 980.5 14.5 NW 20.6 0.0 12.7
21:43 4.8 1.3 78 980.8 13.6 NW 20.6 0.0 12.7
21:45 4.8 1.1 77 980.6 12.1 W 20.6 0.0 12.7
21:46 4.8 1.1 77 980.5 12.1 N 20.6 0.0 12.7
21:47 4.8 1.1 77 980.8 13.0 WSW 20.6 0.0 12.7
21:48 4.8 1.1 77 980.8 13.0 WSW 20.6 0.0 12.7
21:49 4.8 1.1 77 980.7 13.0 WSW 19.0 0.0 12.7
21:50 4.8 0.9 76 980.7 15.2 N 19.0 0.0 12.7
21:51 4.8 0.9 76 980.7 14.5 NW 16.8 0.8 12.7
21:52 4.8 0.9 76 980.4 16.8 NE 16.8 0.8 12.7
21:53 4.8 0.9 76 980.8 9.8 NW 16.8 0.8 12.7
21:54 4.8 0.9 76 980.8 13.0 NW 16.8 0.8 12.7
21:55 4.9 1.0 76 980.7 13.6 NW 16.8 0.8 12.7
21:56 4.9 1.0 76 980.7 17.4 NW 17.4 0.0 12.7
21:57 4.9 0.8 75 980.9 17.4 W 17.4 0.0 12.7
21:58 5.0 0.9 75 980.7 15.9 SW 17.4 0.0 12.7
21:59 5.0 0.9 75 980.8 13.0 W 17.4 0.0 12.7
22:00 5.0 0.9 75 980.6 11.4 NW 17.4 0.0 12.7
22:03 5.0 0.9 75 980.4 13.0 NW 17.4 0.0 12.7
22:04 5.0 0.9 75 980.8 19.0 W 19.0 0.0 12.7
22:05 5.0 0.9 75 980.7 16.8 W 19.0 0.0 12.7
22:06 5.0 0.9 75 980.6 10.7 WNW 19.0 0.0 12.7
22:07 5.0 0.9 75 980.6 12.1 N 19.0 0.0 12.7
22:08 5.0 0.9 75 980.7 10.7 SW 19.0 0.0 12.7
22:09 5.0 0.8 74 980.8 9.2 NW 19.0 0.0 12.7
22:10 5.0 0.8 74 980.7 14.5 NW 19.0 0.0 12.7
22:11 5.0 0.8 74 980.7 14.5 NW 19.0 0.0 12.7
22:12 5.0 0.8 74 980.9 15.2 SE 19.0 0.0 12.7
22:13 5.0 0.8 74 980.7 13.0 W 19.0 0.0 12.7
22:14 5.0 0.8 74 980.5 15.2 W 19.0 0.0 12.7
22:15 4.9 0.7 74 980.5 15.2 W 16.8 0.0 12.7
22:16 4.9 0.7 74 980.6 15.9 SW 15.9 0.0 12.7
22:17 4.9 0.7 74 980.8 15.9 W 15.9 0.0 12.8
22:18 4.9 0.7 74 980.8 13.6 NW 15.9 0.8 12.8
22:19 4.9 0.7 74 980.8 12.1 W 15.9 0.8 12.8
22:21 4.9 0.7 74 980.8 15.9 W 15.9 0.8 12.8
22:22 4.9 0.7 74 980.8 14.5 NW 15.9 0.8 12.8
22:23 4.9 0.5 73 980.9 12.1 SW 15.9 0.0 12.8
22:24 4.9 0.5 73 980.8 16.8 NW 16.8 0.0 12.8
22:25 4.9 0.5 73 981.0 16.8 NW 16.8 0.0 12.8
22:26 4.9 0.5 73 980.8 16.8 W 16.8 0.0 12.8
22:27 4.9 0.5 73 980.7 13.0 NW 16.8 0.0 12.8
22:28 4.9 0.5 73 981.0 13.6 NW 16.8 0.0 12.8
22:29 4.9 0.5 73 981.0 13.6 N 16.8 0.0 12.8
22:30 4.9 0.5 73 980.9 16.8 NW 16.8 0.0 12.8
22:31 4.9 0.5 73 980.9 15.9 W 16.8 0.0 12.8
22:32 4.8 0.2 72 980.8 13.0 NW 16.8 0.0 12.8
22:33 4.8 0.2 72 981.0 11.4 NW 16.8 0.0 12.8
22:34 4.8 0.2 72 981.1 13.0 NW 16.8 0.0 12.8
22:35 4.7 0.1 72 980.8 8.3 W 16.8 0.0 12.8
22:36 4.7 -0.1 71 980.7 13.6 NW 16.8 0.0 12.8
22:37 4.7 -0.1 71 980.5 16.8 W 16.8 0.0 12.8
22:38 4.7 -0.1 71 980.9 16.8 W 16.8 0.0 12.8
22:40 4.6 -0.2 71 980.8 13.6 NW 16.8 0.0 12.8
22:41 4.6 -0.4 70 980.8 13.6 SW 16.8 0.0 12.8
22:42 4.5 -0.5 70 980.9 10.7 WNW 16.8 0.0 12.8
22:43 4.5 -0.5 70 980.8 18.3 W 18.3 0.0 12.8
22:44 4.5 -0.5 70 980.8 18.3 W 18.3 0.0 12.8
22:45 4.5 -0.5 70 980.9 15.9 N 18.3 0.0 12.8
22:46 4.5 -0.5 70 980.8 15.2 NW 18.3 0.0 12.8
22:47 4.5 -0.5 70 980.7 11.4 N 18.3 0.0 12.8
22:48 4.5 -0.5 70 980.6 13.0 NW 18.3 0.0 12.8
22:49 4.5 -0.5 70 981.0 14.5 NW 18.3 0.0 12.8
22:50 4.5 -0.5 70 980.8 12.1 NW 18.3 0.0 12.8
22:51 4.5 -0.5 70 980.8 11.4 NW 18.3 0.0 12.8
22:52 4.5 -0.5 70 980.8 9.8 NW 18.3 0.0 12.8
22:53 4.5 -0.5 70 980.9 8.3 NW 18.3 0.0 12.8
22:54 4.5 -0.5 70 980.9 10.7 NW 15.9 0.0 12.8
22:55 4.4 -0.6 70 981.0 15.2 NW 17.4 0.0 12.9
22:56 4.5 -0.5 70 981.0 11.4 E 17.4 0.8 12.9
22:57 4.5 -0.5 70 980.9 16.8 NE 17.4 0.8 12.9
22:59 4.5 -0.5 70 981.0 15.9 NW 17.4 0.8 12.9
23:00 4.5 -0.5 70 981.0 15.9 NW 17.4 0.8 12.9
23:01 4.5 -0.5 70 981.0 15.9 NW 17.4 0.0 12.9
23:02 4.5 -0.5 70 981.1 15.9 NW 17.4 0.0 12.9
23:03 4.5 -0.5 70 981.0 15.9 NW 17.4 0.0 12.9
23:04 4.5 -0.5 70 980.9 15.9 NW 17.4 0.0 12.9
23:05 4.5 -0.5 70 981.1 15.9 NW 17.4 0.0 12.9
23:06 4.5 -0.5 70 980.9 15.9 NW 16.8 0.0 12.9
23:07 4.5 -0.5 70 981.0 12.1 NW 16.8 0.0 12.9
23:08 4.5 -0.5 70 980.8 12.1 N 16.8 0.0 12.9
23:09 4.5 -0.5 70 981.0 13.0 W 15.9 0.0 12.9
23:10 4.5 -0.5 70 981.1 10.7 NW 15.9 0.0 12.9
23:11 4.5 -0.5 70 981.1 14.5 E 15.9 0.0 12.9
23:12 4.5 -0.5 70 981.3 12.1 W 15.9 0.0 12.9
23:13 4.5 -0.5 70 981.0 13.0 NW 15.9 0.0 12.9
23:14 4.5 -0.5 70 980.9 13.0 NW 15.9 0.0 12.9
23:15 4.5 -0.5 70 981.1 13.6 NW 15.9 0.0 12.9
23:16 4.5 -0.5 70 981.0 12.1 SE 14.5 0.0 12.9
23:17 4.5 -0.5 70 981.1 13.6 NW 14.5 0.0 12.9
23:18 4.5 -0.5 70 980.8 12.1 E 14.5 0.0 12.9
23:19 4.4 -0.8 69 981.0 14.5 NW 15.2 0.0 12.9
23:20 4.4 -0.8 69 980.9 14.5 NW 15.2 0.0 12.9
23:21 4.4 -0.8 69 981.2 13.0 SW 15.2 0.0 12.9
23:23 4.4 -0.8 69 981.1 11.4 N 15.2 0.0 12.9
23:24 4.4 -0.8 69 981.2 13.0 W 15.2 0.0 12.9
23:25 4.4 -0.8 69 981.1 9.8 NW 15.2 0.0 12.9
23:26 4.4 -0.8 69 980.8 12.1 N 15.2 0.0 12.9
23:27 4.4 -0.8 69 981.0 12.1 SW 15.2 0.0 12.9
23:28 4.3 -0.9 69 980.8 9.2 NE 15.2 0.0 12.9
23:29 4.3 -0.9 69 981.0 15.9 SE 15.9 0.0 12.9
23:30 4.3 -0.9 69 981.2 7.6 NW 15.9 0.0 12.9
23:31 4.3 -0.9 69 981.1 12.1 W 15.9 0.0 12.9
23:32 4.3 -0.9 69 981.1 12.1 W 15.9 0.0 12.9
23:33 4.3 -0.9 69 981.0 9.2 W 15.9 0.0 12.9
23:34 4.3 -0.9 69 981.0 10.7 W 15.9 0.0 12.9
23:35 4.3 -0.9 69 981.1 13.6 W 15.9 0.0 12.9
23:36 4.3 -0.9 69 981.0 13.0 W 15.9 0.0 12.9
23:37 4.3 -0.9 69 980.9 18.3 NW 18.3 0.0 12.9
23:39 4.3 -1.1 68 981.0 9.8 NW 18.3 0.0 12.9
23:40 4.3 -1.1 68 981.0 13.6 W 18.3 0.0 12.9
23:41 4.3 -1.1 68 981.1 14.5 N 18.3 0.0 12.9
23:42 4.3 -1.1 68 981.4 12.1 NW 18.3 0.0 12.9
23:43 4.3 -1.1 68 981.1 13.0 W 18.3 0.0 12.9
23:44 4.3 -1.1 68 980.8 11.4 NW 18.3 0.0 12.9
23:45 4.3 -1.1 68 980.8 12.1 N 18.3 0.0 12.9
23:46 4.3 -1.1 68 980.8 12.1 N 18.3 0.0 12.9
23:47 4.2 -1.2 68 981.1 10.7 WNW 18.3 0.0 12.9
23:48 4.2 -1.2 68 981.0 9.8 W 14.5 0.0 12.9
23:49 4.2 -1.4 67 981.1 9.8 S 14.5 0.0 12.9
23:50 4.2 -1.4 67 981.0 9.8 NW 14.5 0.0 12.9
23:51 4.2 -1.4 67 981.1 9.8 WNW 14.5 0.0 12.9
23:52 4.2 -1.2 68 981.0 9.8 NW 13.6 0.0 12.9
23:53 4.2 -1.2 68 981.0 6.0 WSW 13.6 0.0 12.9
23:54 4.2 -1.2 68 981.1 7.6 SW 13.6 0.0 12.9
23:57 4.1 -1.1 69 981.0 11.4 NW 11.4 0.0 12.9
23:58 4.1 -1.1 69 980.9 10.7 NW 11.4 0.0 12.9
23:59 4.2 -1.0 69 981.0 9.2 SE 11.4 0.0 12.9

 

 

UK - WEATHER STATION TOPSITES - UK World Weather Websites

Copyright © Carnkie Weather 2009 - 2021.